GFSWCAN_700_rhum_075.txt.gz
RH
31 70 78 68 50 43 18 15 36 91 100 95 72 86 83 86 94 86 63 80 91 93 100 98 96 97 92 87 81 86 82 78 69 72 72 66 66 64 66 65 69 76 74 71 79 71 57 48 50 53 54 56 56 59
34 71 76 67 49 31 16 13 70 99 97 83 81 81 81 81 84 69 68 82 97 92 97 98 92 98 95 86 87 77 76 72 74 71 62 70 66 64 66 65 62 60 61 56 52 53 52 49 44 42 42 43 51 53
30 63 68 67 44 19 15 14 74 95 91 86 84 76 75 77 71 70 68 85 88 100 91 100 100 100 96 86 88 82 75 68 68 67 70 65 62 60 63 62 61 57 58 57 55 48 48 48 46 44 45 46 47 48
31 58 58 51 18 15 11 29 78 90 85 75 77 79 73 74 84 76 55 71 71 92 93 97 98 100 88 84 75 74 76 72 65 61 61 61 64 67 62 62 57 54 55 50 45 46 48 46 48 48 49 48 47 44
33 54 54 41 13 13 11 50 83 83 80 78 80 79 83 85 81 60 50 59 74 75 89 96 100 99 97 90 85 73 68 64 57 55 57 58 56 63 65 60 46 44 44 44 43 43 47 46 47 48 47 43 40 41
36 48 46 33 11 10 12 58 84 71 78 76 76 76 69 68 44 37 47 50 56 60 68 99 86 99 96 90 82 73 65 64 60 56 58 55 56 66 64 55 36 36 36 36 36 41 40 40 41 39 40 43 45 49
38 44 39 22 9 10 14 57 67 68 64 69 71 77 51 30 33 36 32 43 51 59 53 81 90 89 87 69 81 70 66 65 61 66 60 57 56 60 57 42 34 36 38 37 37 35 33 33 35 38 43 44 46 55
38 43 32 23 12 38 45 57 67 73 64 72 79 83 50 31 27 27 26 37 41 56 55 70 69 70 69 66 75 71 76 73 66 64 57 54 56 54 43 26 23 20 19 20 22 26 30 33 37 41 46 49 53 58
35 47 35 26 13 42 63 66 86 93 93 94 81 73 57 31 24 26 32 41 42 48 58 61 54 55 64 65 66 78 70 66 59 56 53 50 46 37 24 23 22 21 21 21 24 29 33 34 37 42 45 46 45 51
27 46 40 27 19 58 78 99 100 100 97 84 81 69 32 25 30 36 48 47 49 53 51 51 23 38 49 61 68 75 66 62 48 40 38 34 17 15 15 17 19 21 22 23 24 24 26 26 27 29 34 36 38 37
20 45 43 32 17 62 78 92 98 100 100 92 53 35 38 35 47 54 49 51 52 56 49 41 32 16 46 65 66 61 46 43 36 25 24 19 13 15 17 17 14 13 14 16 16 18 20 22 24 28 31 34 34 31
14 44 46 41 22 44 77 85 92 98 100 92 58 53 46 49 56 51 56 53 48 44 25 20 28 14 47 63 65 50 32 24 18 17 18 17 17 18 16 14 14 15 16 17 18 20 22 24 26 27 23 21 16 14
10 47 48 48 31 20 71 86 87 98 94 75 66 62 54 50 52 48 51 41 32 24 22 12 18 27 47 50 43 33 17 15 17 21 20 18 19 18 16 15 16 18 19 20 21 22 23 22 20 15 13 12 12 13
7 49 53 54 37 21 50 95 85 93 94 92 80 67 56 48 40 36 27 31 25 14 9 7 15 37 43 35 16 15 15 19 20 19 17 16 17 17 16 18 19 20 20 21 21 21 19 16 13 12 12 13 17 20
8 39 58 56 45 31 23 99 100 92 94 98 91 69 59 44 34 32 32 30 32 21 5 6 29 31 36 18 13 16 17 18 18 15 14 14 15 16 20 21 21 20 21 21 19 18 15 13 10 10 14 20 25 31
9 21 60 59 49 37 18 93 98 95 96 95 89 67 56 50 36 26 30 23 28 20 8 26 32 17 18 13 15 16 17 15 14 14 15 16 19 21 21 20 21 21 21 19 17 14 10 7 7 10 14 18 24 32
8 14 53 70 58 44 22 56 99 98 96 95 86 70 49 47 35 24 22 21 18 12 12 21 15 13 14 13 15 15 14 13 15 16 17 20 20 20 20 21 22 21 19 17 12 8 6 6 8 10 11 15 21 25
8 16 44 80 68 48 30 37 98 97 94 88 88 73 46 41 42 34 18 14 13 11 13 17 14 12 14 16 14 16 18 19 18 20 20 20 22 23 23 22 21 20 17 12 7 6 5 6 7 10 17 21 20 26
19 24 37 86 75 51 35 42 96 97 88 80 83 76 55 34 29 27 12 10 9 11 17 17 14 13 13 14 16 22 23 21 21 21 22 24 24 23 23 22 20 18 13 7 5 4 5 8 13 18 21 20 21 30
61 66 56 100 85 60 57 65 70 94 95 87 79 77 60 41 20 13 9 7 7 16 20 18 13 16 21 23 24 23 22 22 23 24 25 26 26 26 24 22 19 13 8 5 5 6 9 14 19 21 20 28 32 42
100 100 98 97 96 81 100 98 93 93 98 80 72 74 77 53 27 12 8 6 13 20 17 14 14 13 22 26 23 24 24 25 24 26 28 28 28 27 25 21 15 9 5 5 6 9 13 15 16 17 21 36 48 55
98 100 97 96 91 100 97 96 95 92 85 80 68 80 80 50 34 16 11 12 11 15 14 14 15 25 24 24 25 26 26 27 31 34 34 32 31 30 24 18 11 5 5 6 8 12 15 15 16 19 31 45 52 51
98 98 96 96 99 97 97 96 96 99 90 82 71 78 89 59 28 18 20 12 11 11 14 19 25 25 26 27 28 28 30 32 34 36 36 33 33 29 21 14 6 5 5 7 11 15 15 16 18 29 44 47 47 46
96 98 96 96 96 96 96 97 94 97 84 74 72 85 87 68 32 20 19 11 10 13 19 24 25 26 27 29 31 31 32 33 35 36 35 34 34 26 18 8 5 5 6 10 14 15 16 19 31 42 45 44 44 45
98 97 98 96 96 96 96 96 96 96 95 92 88 87 76 75 29 23 15 14 21 26 28 26 27 28 31 32 32 32 31 32 34 35 34 35 32 24 13 6 5 5 8 12 14 15 18 32 44 47 46 42 40 41
96 96 94 93 96 96 89 90 87 87 89 86 91 89 76 52 37 23 16 26 31 31 30 26 24 26 30 32 30 27 25 29 33 34 36 37 30 20 9 5 4 6 9 11 12 16 30 43 50 49 47 47 47 45
96 96 96 94 93 88 86 87 84 87 83 93 94 92 89 63 40 28 21 26 32 31 28 25 25 30 32 30 26 21 21 27 34 36 37 36 26 12 5 5 5 7 9 11 14 27 42 51 50 50 51 51 51 50
95 94 76 74 89 78 80 81 83 89 93 91 93 94 89 79 52 31 23 25 34 32 26 24 23 21 24 20 19 20 22 31 36 37 39 31 17 7 4 4 5 8 11 13 23 38 49 51 52 53 53 55 55 56
89 73 78 73 72 86 80 72 70 77 72 83 82 84 83 80 58 34 30 29 33 29 25 23 32 56 62 60 44 29 30 36 38 40 37 23 10 5 4 4 7 9 11 16 30 44 50 51 54 56 57 58 59 59
81 68 82 88 84 78 76 72 72 70 64 73 83 88 90 84 56 37 36 39 36 28 36 55 63 66 56 46 33 29 34 40 42 40 28 14 6 4 3 6 9 10 13 27 41 50 52 53 57 60 61 64 69 69
89 82 79 83 83 75 72 72 78 77 77 82 85 93 90 86 84 63 50 50 54 57 61 66 73 66 53 26 28 38 43 44 42 34 18 5 3 3 4 8 9 11 23 39 52 55 57 60 63 64 57 62 69 69
89 79 74 70 72 77 76 78 87 86 84 87 89 93 96 96 95 90 77 67 64 60 61 76 74 46 33 35 42 46 47 48 40 20 6 3 3 4 7 9 10 18 34 49 56 58 59 61 57 53 56 68 71 71
95 86 76 69 74 87 94 94 94 89 91 96 95 94 94 96 97 93 91 89 89 88 87 84 80 50 40 44 49 51 52 44 23 8 4 3 4 5 9 11 14 27 44 55 57 60 61 58 54 61 68 71 72 73

GFSWCAN_700_rhum_078.txt.gz
RH
8 36 51 44 28 14 33 62 79 65 46 40 58 67 68 70 64 49 55 64 70 80 92 92 92 89 84 75 67 77 78 75 67 60 59 59 59 56 55 52 50 55 64 63 66 72 53 41 44 46 45 42 45 50
8 35 47 42 15 13 29 69 71 63 50 48 60 61 57 51 45 34 54 63 68 67 85 91 96 92 92 88 78 72 66 62 60 55 48 55 52 49 52 66 51 53 49 53 42 48 45 43 42 42 40 36 38 40
8 34 42 37 8 13 34 71 69 46 50 60 62 65 62 62 50 34 54 71 86 79 80 88 91 93 91 83 78 66 56 55 56 54 55 52 50 49 51 49 51 48 50 49 46 43 43 45 45 43 42 44 44 45
7 34 40 30 8 12 34 70 65 43 38 49 62 66 67 68 69 50 48 71 70 76 76 85 99 91 86 79 73 69 59 54 49 45 48 51 51 54 52 51 50 48 48 44 39 39 40 39 42 44 45 46 46 44
6 32 40 18 6 10 28 63 58 40 31 37 59 64 72 73 73 54 40 60 60 61 68 86 99 100 94 86 80 67 61 58 54 50 48 50 48 49 46 45 35 39 39 42 40 36 38 37 40 43 45 45 42 41
6 27 37 22 6 6 17 55 59 42 39 51 58 59 69 73 58 45 42 47 53 43 74 79 71 88 94 83 85 80 68 59 55 55 52 50 48 52 49 38 28 31 34 34 35 33 31 31 31 34 36 37 39 44
10 18 40 27 7 6 14 54 66 54 58 60 60 60 60 40 28 31 32 42 49 50 49 72 75 78 72 60 73 78 72 65 58 58 53 49 49 55 46 27 25 29 29 31 30 30 30 30 29 31 33 35 40 42
18 9 34 32 11 9 9 54 64 62 66 58 62 59 41 26 21 25 23 29 41 51 50 52 54 56 60 60 62 64 65 65 61 56 48 46 46 46 29 19 18 15 14 16 18 20 22 25 28 30 33 33 32 34
18 5 34 31 20 27 20 33 59 58 71 74 75 71 44 38 28 25 26 30 40 46 50 40 45 46 57 59 68 71 63 63 54 54 53 50 47 32 22 20 20 20 20 20 21 22 23 23 23 23 21 21 23 25
24 5 27 34 25 26 60 37 56 62 65 79 89 73 52 45 28 22 34 34 45 45 44 35 38 35 40 56 63 67 68 63 57 41 39 39 20 17 14 14 17 19 20 19 16 16 18 17 17 18 19 20 20 21
32 9 12 40 32 18 54 59 59 82 94 91 77 67 52 34 27 37 44 45 44 40 36 29 30 37 21 50 69 65 56 51 43 34 32 20 11 11 15 16 15 12 13 14 14 15 17 17 18 20 20 20 19 18
40 18 5 39 39 24 33 58 69 81 84 92 78 66 48 42 46 48 49 40 34 36 32 29 34 37 24 50 73 66 50 36 28 21 18 14 11 16 17 15 13 14 15 16 17 18 18 19 19 19 18 16 14 12
47 27 5 34 43 36 22 74 78 79 82 91 82 61 58 57 58 47 40 36 30 27 25 25 21 32 22 56 59 48 40 23 18 20 16 12 15 16 16 15 14 17 18 18 19 19 20 19 18 16 13 10 9 9
54 36 8 13 50 43 26 45 80 76 84 94 83 79 74 60 51 40 34 30 28 24 19 17 15 25 35 52 40 28 24 16 19 19 13 13 14 14 15 14 18 19 20 19 20 20 19 18 14 10 8 7 8 8
65 46 12 7 52 55 38 24 78 88 85 99 82 74 70 63 44 35 35 36 31 29 19 11 19 31 42 39 20 15 18 18 17 14 13 14 14 14 16 19 19 19 20 20 19 18 17 12 8 7 6 7 8 10
72 52 21 7 45 68 50 28 79 100 100 98 84 70 72 66 56 44 38 37 34 34 32 16 30 37 39 31 15 12 17 14 13 13 14 16 16 18 19 18 19 20 20 20 19 17 12 8 6 5 6 8 13 16
78 44 26 8 36 74 62 33 64 98 96 95 82 71 64 64 58 51 44 37 33 27 24 19 32 22 17 20 15 15 13 10 12 13 18 18 19 20 20 21 21 21 20 19 18 12 8 6 5 6 8 13 16 17
70 58 28 9 35 80 71 47 69 100 94 88 74 69 60 60 57 43 44 40 32 22 19 19 17 19 14 14 9 7 8 9 16 20 20 20 21 22 22 22 22 22 20 19 13 9 6 5 5 8 11 12 14 17
85 70 25 10 16 67 83 72 56 100 86 85 76 76 77 64 61 49 39 29 25 18 17 21 19 17 14 9 11 13 14 20 22 21 21 22 23 24 25 25 24 22 21 15 9 7 5 5 7 9 10 12 14 29
97 68 19 14 19 69 100 99 72 72 72 66 63 81 82 72 64 61 50 32 19 15 17 22 16 11 10 9 10 12 18 23 22 23 24 24 27 29 29 28 25 23 18 11 8 6 5 7 9 9 11 14 26 39
97 58 43 42 82 95 100 98 91 81 54 52 52 74 88 76 62 61 67 58 25 17 12 10 12 14 12 21 22 24 24 23 24 24 28 33 35 34 32 30 26 22 14 8 6 5 6 7 8 10 13 25 38 41
94 42 45 100 100 100 99 100 96 90 84 63 53 54 80 84 67 60 67 81 65 24 12 9 16 16 15 16 18 24 24 25 26 30 34 36 38 38 35 31 27 18 10 7 5 5 6 6 8 10 20 35 40 41
53 47 85 100 100 98 97 97 100 96 96 76 56 57 77 78 71 67 79 88 76 47 14 12 21 20 18 20 24 25 26 27 30 33 34 36 37 39 36 30 24 13 8 6 5 6 6 6 8 16 30 41 42 42
90 100 100 98 97 97 96 95 99 100 96 89 97 96 90 87 78 81 86 86 65 46 16 13 23 21 20 24 26 27 28 30 32 32 32 33 35 38 36 29 18 10 7 5 5 5 6 7 15 25 39 44 44 46
99 96 98 96 96 97 96 96 96 100 96 87 98 92 88 87 84 82 73 77 69 50 19 15 21 20 24 26 27 28 30 32 32 29 30 32 35 38 35 26 14 8 5 5 5 6 6 13 24 35 42 46 48 49
98 96 94 91 96 96 97 94 94 90 83 96 92 90 88 95 99 86 65 67 65 56 23 12 13 17 30 28 29 31 33 33 29 25 28 33 36 39 34 22 12 6 5 5 6 6 10 22 36 43 46 49 50 51
96 96 96 94 97 94 95 93 83 82 97 96 88 84 90 95 85 60 66 69 65 53 26 14 17 28 28 27 28 31 32 32 28 23 25 33 38 40 32 21 9 5 5 5 6 8 17 33 44 48 49 49 50 53
95 95 94 88 83 78 91 79 80 80 89 94 92 94 85 73 70 66 66 62 78 56 19 18 25 27 29 32 33 33 34 33 27 23 30 36 40 39 30 15 6 4 5 6 7 14 28 43 49 50 50 52 53 55
95 91 91 92 74 72 78 82 72 62 65 69 70 68 59 52 60 72 72 51 70 76 22 26 32 28 29 30 30 29 31 29 25 26 36 40 42 34 25 10 4 5 6 6 10 24 40 48 51 52 51 50 48 54
85 83 84 69 58 81 82 76 70 69 68 66 65 65 62 54 63 88 90 87 62 53 41 34 42 43 33 25 37 54 55 37 29 35 40 44 42 33 16 4 4 5 6 8 18 34 46 50 51 51 46 46 51 60
75 74 74 68 70 77 78 73 69 73 74 70 67 70 74 64 60 81 93 95 91 73 58 54 37 28 33 59 67 68 54 44 36 41 46 48 42 22 6 4 5 6 7 12 26 42 51 54 54 49 48 56 63 63
77 76 74 70 65 75 72 77 79 76 72 70 71 75 75 69 72 87 96 91 58 41 39 34 42 58 72 74 70 78 54 37 43 48 50 47 28 10 4 4 6 8 9 17 35 51 57 59 58 52 56 64 66 65
68 72 72 74 69 76 75 80 87 90 82 79 78 77 79 81 91 89 93 85 56 67 75 80 85 92 82 71 75 53 41 46 50 52 50 33 13 4 4 5 7 9 12 24 48 58 62 62 61 57 61 66 67 68

GFSWCAN_700_rhum_081.txt.gz
RH
35 15 30 9 19 47 51 47 34 37 36 50 41 37 28 21 24 36 41 46 45 46 54 62 58 52 56 54 76 68 67 64 54 62 75 54 68 51 54 43 48 67 70 63 63 65 54 39 38 49 48 39 38 39
31 13 32 12 15 46 53 38 38 38 44 49 44 29 20 19 26 36 45 40 49 48 44 54 56 59 59 66 62 65 61 58 48 44 40 42 46 37 42 51 41 62 42 64 42 59 41 40 39 40 41 39 34 35
30 10 34 12 6 30 41 49 44 50 45 49 51 55 50 32 22 30 38 44 44 49 55 57 55 61 62 63 60 54 44 47 44 42 43 42 40 36 62 65 38 35 37 39 37 38 37 40 41 42 43 41 42 42
36 8 31 20 5 16 39 55 50 46 44 49 52 56 57 57 30 29 39 41 51 45 52 60 72 70 64 64 62 54 52 47 42 41 39 41 42 39 47 43 43 47 39 37 34 36 37 37 40 40 42 43 42 40
46 8 26 16 4 12 29 50 59 48 36 49 54 56 60 58 48 22 31 39 47 49 51 51 43 59 73 73 70 66 63 57 51 47 44 43 40 44 38 40 27 26 30 36 54 35 38 34 35 37 35 36 35 34
47 13 20 21 6 7 23 40 55 53 50 53 60 60 64 61 37 21 26 34 48 41 54 57 52 58 49 56 63 69 64 60 58 54 52 49 44 51 44 38 23 25 26 27 28 30 31 31 30 29 29 28 28 30
50 25 7 25 12 5 9 27 46 59 66 68 67 67 68 54 30 24 21 32 41 44 51 61 54 46 50 48 51 59 62 62 63 61 54 53 51 56 46 30 19 22 22 23 22 23 22 22 20 22 23 25 27 28
58 30 6 22 20 7 6 12 35 57 60 61 67 68 67 51 28 27 20 21 31 49 47 43 43 42 44 46 54 55 58 61 57 58 53 48 48 48 29 15 13 12 12 12 13 15 16 17 19 20 22 21 19 19
64 44 12 9 26 19 7 8 24 54 63 71 63 60 57 52 41 29 22 24 30 42 48 38 35 37 41 45 57 62 64 63 53 50 51 50 46 32 18 15 14 14 15 16 15 18 18 17 16 15 16 16 17 18
68 58 28 5 24 29 16 18 27 50 56 63 59 72 58 49 47 36 41 28 28 34 35 28 35 38 35 42 54 67 62 65 62 45 41 39 17 14 15 14 13 15 16 17 15 13 13 14 14 15 16 16 17 18
69 67 43 9 16 29 22 44 38 48 51 55 68 81 64 57 54 46 42 36 36 35 30 24 30 37 31 27 57 58 65 55 56 41 35 26 7 6 8 12 15 15 15 12 13 13 14 15 16 17 17 17 17 16
79 72 56 22 10 29 31 36 54 51 60 60 72 82 67 60 37 33 43 40 38 37 35 28 29 31 41 31 54 67 53 46 38 34 23 13 5 8 13 15 14 13 12 14 15 16 16 16 17 18 18 17 14 10
90 77 71 38 8 32 36 28 55 55 60 80 80 89 75 58 44 47 47 43 39 34 27 30 30 36 38 38 49 58 56 45 31 21 14 6 7 11 14 13 14 13 15 17 17 17 17 18 18 18 16 12 8 6
99 84 82 57 18 17 45 37 39 64 74 82 89 86 64 54 55 50 43 40 39 31 26 21 26 31 39 30 49 42 43 30 18 18 8 6 9 13 13 14 14 16 18 18 18 18 18 18 18 14 10 8 6 5
100 96 92 75 36 12 44 49 31 45 80 86 85 77 76 62 55 48 46 47 42 40 32 13 19 25 34 49 45 31 17 18 15 10 6 9 12 12 15 15 17 18 18 18 19 19 19 18 14 10 7 6 5 7
99 100 89 90 50 11 32 59 39 39 79 90 82 74 68 61 58 55 42 43 45 39 37 34 24 30 39 40 35 18 19 13 9 8 12 11 12 16 17 18 19 19 20 20 20 20 19 14 10 7 6 5 7 7
98 90 98 100 63 15 36 72 57 80 92 83 91 76 72 60 62 66 62 51 44 42 33 29 26 19 27 36 32 19 13 9 10 11 10 13 18 19 20 20 21 21 21 22 21 21 16 12 8 6 5 6 7 7
98 100 98 97 63 22 25 76 99 100 96 49 62 57 58 63 63 61 62 54 49 44 38 31 28 27 23 17 12 9 13 13 9 11 12 18 20 21 21 22 23 24 24 22 22 18 13 9 6 6 6 6 7 9
98 98 97 96 90 35 22 67 90 100 95 45 53 69 51 48 46 56 63 64 63 45 36 37 30 30 24 20 14 11 14 12 13 17 19 21 22 22 23 26 27 27 25 24 21 16 11 7 6 6 6 6 7 16
98 98 97 96 94 32 45 78 76 95 94 67 48 66 68 48 45 45 53 63 69 71 53 41 32 26 18 16 16 14 13 16 17 18 22 22 23 26 31 32 31 29 26 23 19 13 8 6 6 5 5 7 14 26
98 98 97 96 89 61 46 68 78 80 72 72 46 56 64 59 53 49 42 49 68 72 68 63 54 40 20 15 15 18 18 18 21 23 24 24 30 34 36 36 33 29 26 22 16 10 7 6 6 5 6 12 24 32
97 98 97 97 96 98 83 64 66 79 64 58 45 50 67 67 65 59 56 55 45 46 59 61 65 50 19 14 16 17 20 23 24 24 25 29 33 34 37 39 35 30 27 19 12 8 6 6 5 6 10 20 31 36
98 97 97 97 98 97 96 92 83 82 76 74 64 64 68 63 66 67 68 61 48 34 30 52 59 64 45 26 20 20 23 24 25 26 28 30 32 33 35 39 38 32 26 16 9 7 6 6 5 8 17 28 36 38
98 97 96 97 95 96 94 92 92 100 100 95 97 89 81 76 73 74 70 64 56 44 32 40 58 64 76 44 21 19 23 26 26 27 31 32 32 32 33 38 39 33 24 14 7 6 6 5 6 12 24 34 38 40
95 96 95 94 95 97 100 99 87 94 95 97 96 93 86 82 81 82 80 72 53 42 33 33 48 74 89 43 19 21 27 27 27 32 35 32 29 30 31 36 40 35 22 10 7 6 6 5 8 18 31 38 41 42
96 95 87 89 90 90 89 96 98 94 95 99 97 90 82 79 84 89 75 50 42 42 42 50 53 82 83 36 19 21 26 28 39 45 39 33 26 26 28 35 40 32 17 9 6 6 6 6 13 27 38 42 43 43
94 90 95 90 85 79 93 90 91 96 95 90 81 76 75 86 87 68 34 34 40 38 45 59 86 95 67 33 19 25 31 44 36 34 49 52 36 27 42 43 40 24 15 7 6 6 6 10 21 35 41 44 47 46
89 90 85 84 86 84 91 90 88 82 78 79 79 82 82 74 58 39 42 46 52 59 59 73 95 92 88 42 20 46 77 58 42 64 48 51 50 42 58 46 34 23 11 6 6 6 7 14 30 41 44 47 46 43
97 93 98 98 95 92 89 80 75 66 58 56 59 63 55 40 42 43 47 56 62 72 70 85 97 95 50 23 24 37 35 32 42 42 42 66 67 70 58 40 33 18 6 5 6 7 9 21 38 44 46 46 43 47
99 100 96 94 88 74 66 71 71 66 61 62 61 61 60 59 61 56 59 63 70 66 86 82 96 76 21 36 40 33 33 40 46 42 47 65 84 75 44 41 27 10 5 6 6 8 13 31 44 48 48 43 46 54
95 87 84 86 79 67 69 69 64 57 60 66 69 70 66 64 62 66 66 64 77 84 86 92 96 76 28 40 41 36 53 54 47 49 86 92 84 48 45 39 18 6 5 6 7 10 21 39 47 49 48 45 49 57
92 85 73 68 67 64 60 58 67 71 67 63 62 62 66 69 66 67 68 71 72 92 96 97 91 52 37 51 53 49 40 36 43 54 85 88 54 46 45 27 8 4 5 7 8 15 32 46 51 52 51 48 53 61
94 84 71 80 82 69 57 60 68 74 68 70 76 76 72 65 66 68 76 87 96 96 96 97 95 75 43 53 64 46 38 39 60 94 89 64 49 48 34 11 4 5 6 8 12 25 42 50 55 57 56 52 59 68

GFSWCAN_700_rhum_084.txt.gz
RH
66 50 16 16 7 12 28 42 48 54 33 24 20 16 20 22 23 24 34 37 37 21 23 27 30 41 44 38 43 48 50 48 44 62 61 45 64 46 44 39 36 40 58 62 55 59 61 41 33 29 43 34 31 29
65 52 13 22 5 10 24 33 47 61 50 34 26 19 24 29 31 33 33 37 41 30 27 33 33 37 37 37 38 45 50 47 43 42 40 42 51 36 39 54 46 34 31 57 43 56 50 34 32 34 34 33 32 29
60 50 11 25 7 8 16 22 37 63 62 48 43 36 23 24 30 31 31 36 47 44 30 29 26 29 31 33 39 42 38 39 42 39 43 41 38 37 51 60 48 29 30 34 33 34 32 34 35 35 35 33 34 33
60 48 12 22 11 5 14 22 36 51 64 58 57 52 46 22 29 33 36 39 48 47 52 38 38 41 42 46 48 46 41 36 34 36 36 38 37 41 38 33 33 32 32 30 28 32 31 30 30 30 32 33 33 31
64 49 17 17 18 4 9 21 35 35 44 59 60 62 57 41 20 33 40 39 41 45 45 51 42 42 44 46 51 52 51 48 48 46 43 40 35 36 31 30 18 20 19 24 29 29 32 29 28 25 23 23 22 22
62 59 28 10 23 8 6 13 27 36 32 42 61 63 66 58 27 28 30 32 39 37 40 41 43 51 49 52 56 56 56 56 55 52 49 42 36 42 39 30 14 18 18 21 21 27 25 23 24 22 19 21 20 21
56 64 43 9 19 18 5 8 19 32 43 43 57 62 65 62 46 23 27 32 31 35 43 45 37 35 47 48 52 56 56 57 58 56 46 43 39 48 43 21 12 16 20 21 20 21 18 17 16 15 17 19 21 22
58 65 59 25 8 22 14 4 7 16 35 48 53 64 68 64 37 33 21 28 32 36 36 39 33 29 32 36 48 47 49 60 60 59 50 42 41 42 25 10 7 8 8 9 10 11 12 13 15 16 16 15 15 15
60 67 72 43 11 13 23 10 5 11 30 46 62 60 64 68 57 36 26 20 23 35 46 30 28 30 31 33 45 57 62 52 50 48 47 48 47 30 11 11 10 9 9 10 12 13 15 16 14 14 13 14 15 15
72 69 74 63 26 7 22 20 10 10 21 47 56 57 56 64 61 52 40 27 24 21 29 28 30 30 31 39 49 59 57 56 67 49 44 37 15 10 14 14 12 13 14 14 16 17 14 13 13 13 14 15 16 16
80 78 77 76 44 10 21 24 16 15 25 51 56 53 64 63 58 58 43 34 29 28 29 28 28 32 38 38 46 63 67 56 58 53 44 34 14 6 5 6 8 10 13 16 17 13 13 14 15 15 16 16 17 17
91 88 89 83 66 22 19 32 25 24 44 57 61 62 60 72 59 53 33 30 27 34 34 31 33 36 39 40 34 65 59 51 43 44 36 20 6 7 6 7 13 14 13 13 12 14 16 16 16 16 17 17 18 15
98 98 99 94 85 46 13 42 33 26 37 69 74 69 70 67 58 46 34 38 39 34 34 31 34 39 44 42 42 45 66 57 48 35 17 9 6 6 7 12 10 11 13 13 14 17 17 17 17 18 18 18 14 10
100 100 100 98 96 78 26 26 44 33 41 62 84 80 65 62 60 48 42 40 42 42 34 26 22 33 44 47 42 50 56 47 33 18 10 7 5 6 11 12 11 14 14 16 18 17 17 18 19 19 18 14 10 7
99 99 100 100 99 94 48 22 51 40 58 78 73 70 72 61 56 50 49 48 46 44 39 38 19 30 42 44 45 42 35 26 21 10 8 9 8 11 11 10 15 16 17 18 18 19 19 20 20 18 14 10 7 6
99 99 98 99 100 98 80 28 54 51 82 88 64 54 55 55 62 63 55 48 42 43 45 40 32 26 29 36 46 39 24 12 9 9 10 11 13 10 11 16 17 19 19 20 20 21 21 21 19 14 10 8 7 6
99 98 99 99 98 97 91 44 56 92 100 90 42 42 48 40 50 58 60 60 60 50 42 39 35 31 35 36 39 30 19 16 16 15 13 13 11 11 17 19 20 20 21 21 23 23 23 21 16 11 8 7 6 5
98 99 100 98 98 97 94 62 92 100 100 64 28 32 45 35 43 58 62 64 61 56 52 48 39 34 28 24 21 15 13 14 14 14 14 14 13 15 19 21 21 22 23 26 27 25 24 20 14 9 7 7 5 4
98 99 99 98 98 98 97 86 73 100 98 66 37 26 44 50 40 44 66 69 68 67 70 70 50 44 43 37 32 27 24 21 16 15 15 14 16 19 21 22 23 26 30 30 28 26 23 17 12 8 8 6 5 5
98 98 98 98 98 97 96 97 96 86 99 90 56 35 28 38 50 45 52 58 62 68 67 74 62 59 57 54 36 33 23 17 17 16 14 17 18 22 23 24 30 33 35 31 28 26 21 15 10 8 7 5 5 8
98 98 98 97 97 98 96 94 90 82 81 100 83 54 42 32 32 43 36 47 78 67 44 37 31 27 47 58 63 56 41 24 18 18 18 20 24 24 25 32 35 37 36 34 30 26 19 13 9 7 6 5 7 13
96 98 97 97 97 97 94 94 96 85 80 70 63 50 39 31 27 36 49 52 49 34 26 30 41 41 35 31 42 62 68 65 32 15 18 22 24 25 32 35 41 37 38 39 33 25 17 11 8 7 6 6 10 21
97 97 97 97 96 94 95 93 98 97 92 84 77 68 58 47 38 36 34 25 20 20 24 33 41 44 43 39 34 44 63 57 50 17 18 24 26 29 34 40 38 33 38 40 37 26 17 10 7 6 6 8 16 28
98 97 96 95 94 95 94 96 99 100 100 100 96 88 78 70 67 60 51 42 34 27 23 28 41 44 50 49 40 36 55 63 59 22 20 26 28 32 36 45 38 40 36 42 41 27 14 8 7 6 6 11 23 33
97 96 95 94 94 85 95 96 98 97 92 92 98 96 95 91 85 69 51 45 40 32 30 36 38 38 42 41 34 45 59 76 71 33 22 28 29 34 46 58 43 34 59 71 42 24 12 6 6 6 8 16 30 35
95 95 90 85 87 80 87 98 97 97 93 95 95 94 94 96 91 72 58 47 39 36 34 33 33 36 46 51 39 44 63 82 72 34 25 29 30 43 66 58 34 45 78 85 38 20 8 6 7 7 10 22 34 38
95 90 87 81 80 81 86 86 91 94 88 94 89 96 99 94 83 66 50 38 36 33 38 37 44 46 47 68 58 68 94 97 69 28 27 31 37 69 62 62 61 64 91 86 30 13 6 6 7 8 13 27 38 40
86 83 76 78 82 81 84 83 83 80 82 92 90 87 80 70 65 52 41 35 38 40 43 45 54 61 67 69 82 94 97 97 75 30 33 36 55 57 71 91 76 82 93 63 23 7 6 7 7 9 16 32 43 40
83 76 83 88 90 91 86 80 78 73 68 66 68 74 76 59 46 39 40 44 43 42 46 50 60 65 75 84 81 95 96 92 72 34 32 40 54 80 84 88 94 94 90 36 14 6 6 7 9 12 22 40 46 40
76 86 91 89 90 84 76 73 70 66 70 86 92 75 56 47 40 40 43 47 50 50 60 66 66 74 80 79 91 96 96 62 35 35 55 89 71 55 67 80 94 93 60 22 7 6 7 8 10 15 33 47 50 40
88 89 91 84 84 81 79 76 77 91 94 85 72 65 58 50 44 38 40 49 59 62 60 62 71 82 86 88 96 96 94 64 35 63 72 45 52 77 82 94 95 76 41 12 5 7 8 10 11 23 43 53 50 41
87 94 95 87 82 81 83 90 90 78 69 63 56 52 50 51 48 43 43 48 53 60 64 68 70 77 91 93 97 61 32 32 36 52 46 66 84 76 90 95 79 50 32 6 6 8 9 10 16 35 52 55 42 43
82 83 84 91 93 92 78 75 72 70 64 60 53 50 57 65 55 49 49 49 54 60 64 72 79 92 90 95 96 48 50 72 56 53 89 71 52 64 94 90 48 49 13 5 7 9 10 13 28 47 57 46 36 51

GFSWCAN_700_rhum_087.txt.gz
RH
61 50 39 9 12 5 6 17 22 43 39 24 17 18 18 17 22 31 34 31 26 23 22 26 28 27 29 25 21 26 29 32 32 32 36 35 43 43 35 41 33 28 35 55 54 57 45 41 34 30 29 28 28 28
65 50 45 8 11 7 5 16 20 36 44 24 22 22 22 23 26 27 34 36 32 27 26 24 26 29 31 30 27 33 40 39 35 35 33 33 36 36 36 30 39 33 25 40 41 38 44 36 29 30 28 29 28 30
68 48 49 11 12 9 5 12 18 38 46 46 35 19 26 30 33 32 29 35 38 34 31 29 28 31 33 31 33 39 40 39 41 38 37 36 32 37 33 32 33 29 24 25 22 20 24 26 25 28 28 31 33 33
69 50 46 21 9 14 4 9 15 34 42 46 51 47 20 25 29 27 33 37 39 33 39 35 32 34 36 36 40 43 42 42 38 40 38 34 31 32 32 30 27 24 24 23 19 22 24 24 24 27 29 29 28 26
68 53 49 30 6 17 4 5 12 28 39 46 53 55 52 22 25 31 31 32 37 40 40 33 35 33 38 41 44 49 48 47 45 44 42 42 38 38 31 26 12 13 13 16 16 18 21 22 24 23 24 24 25 24
66 59 55 44 9 13 11 4 8 18 34 39 47 54 57 54 21 20 30 30 35 38 44 36 34 36 43 44 49 52 56 57 56 53 50 46 40 46 38 26 10 12 12 13 14 18 17 18 20 20 21 20 17 18
69 69 58 55 26 6 20 6 6 10 18 30 37 44 54 57 54 22 21 20 24 29 31 34 33 29 32 31 36 38 44 49 54 57 50 47 43 51 43 16 10 15 18 18 18 20 18 20 19 16 15 16 17 17
76 70 66 61 48 11 11 18 4 8 16 20 27 33 48 57 61 53 23 19 19 27 29 26 23 22 28 32 44 51 51 47 42 43 41 38 41 40 22 10 8 6 8 10 12 11 10 12 14 15 17 16 14 15
80 76 77 71 60 33 6 21 16 5 7 14 26 33 49 57 58 59 52 38 29 22 28 22 24 23 28 31 38 44 54 58 55 52 47 45 40 26 14 10 10 11 9 8 9 11 14 16 17 16 13 14 15 16
80 82 83 87 71 55 18 11 22 10 10 14 33 49 48 44 49 56 59 52 41 30 23 25 27 28 26 25 30 39 54 58 63 53 48 42 13 9 11 14 16 14 11 12 14 18 20 19 15 14 15 15 16 17
84 84 88 92 85 67 38 10 18 17 14 20 49 62 56 51 46 55 52 44 35 31 28 27 26 28 33 34 33 36 50 47 54 50 43 31 10 9 8 6 6 9 12 15 17 20 18 14 14 16 17 17 17 18
96 87 95 93 96 80 56 23 17 22 22 31 52 74 69 64 59 55 52 43 38 31 29 28 29 30 37 42 44 50 56 50 50 49 39 21 9 8 5 6 5 7 12 14 14 14 13 15 17 17 17 18 18 19
100 98 99 100 98 95 78 45 17 26 26 47 68 77 67 57 64 60 49 36 32 29 28 32 31 33 37 42 47 41 55 65 52 45 28 14 11 8 6 7 9 12 10 12 14 14 16 18 17 18 19 19 19 16
99 100 99 99 96 99 94 74 25 28 31 52 67 64 62 55 51 48 46 39 36 37 38 38 28 27 38 41 45 42 51 46 44 31 17 11 9 9 8 8 13 11 12 14 15 17 18 18 19 19 20 20 17 14
99 98 100 99 98 98 99 95 51 31 36 50 47 40 41 46 51 51 49 48 45 44 44 42 39 30 32 42 43 41 43 35 31 19 12 13 13 11 11 13 10 12 15 17 19 19 19 20 20 21 22 20 15 11
99 99 98 99 98 98 98 98 70 43 47 48 51 26 26 29 40 50 53 52 51 48 43 48 42 31 28 30 40 37 39 25 12 12 13 13 13 14 14 12 14 16 18 20 20 20 21 23 23 23 22 18 14 10
98 97 98 99 99 98 98 98 93 70 96 97 47 26 23 30 32 46 60 67 63 60 54 45 42 36 38 34 32 25 23 21 20 19 14 13 13 13 14 14 16 18 20 21 21 22 26 28 26 24 20 16 12 10
97 98 100 98 98 98 97 97 96 96 99 82 59 51 39 29 30 32 47 55 59 62 63 58 50 40 38 38 32 31 25 20 17 13 14 18 17 16 14 15 17 20 22 22 24 28 38 38 26 23 18 13 10 9
98 96 98 98 98 98 97 96 96 97 94 85 66 62 56 43 36 37 42 54 62 65 62 63 62 64 41 38 44 53 52 39 31 28 23 20 22 18 16 17 19 22 23 25 29 38 37 34 26 21 17 12 10 9
98 98 98 98 98 97 97 96 95 97 98 95 77 69 66 66 53 40 49 48 51 79 80 67 24 16 21 25 34 47 55 57 53 54 55 47 19 20 16 16 21 24 25 30 37 37 40 59 31 19 14 11 10 8
98 97 98 97 97 97 97 94 95 94 97 99 87 80 68 65 64 58 45 38 49 58 34 17 15 13 14 21 34 41 40 40 51 64 62 55 37 22 17 18 22 25 30 36 38 38 61 70 37 18 16 10 8 7
95 99 97 97 97 97 97 94 97 96 97 91 86 83 78 72 70 66 62 54 50 49 51 35 31 28 19 17 22 40 46 46 41 37 48 64 65 46 18 20 25 28 35 39 39 44 67 62 60 65 20 8 8 7
97 97 97 97 97 95 96 96 98 100 100 97 96 93 86 76 66 63 60 54 49 48 49 47 51 47 38 26 22 32 43 46 47 42 34 48 63 51 23 21 27 31 36 37 43 59 65 83 94 54 11 7 7 7
98 98 96 96 95 96 93 90 95 100 97 97 97 93 89 83 75 68 63 56 49 46 43 46 50 42 37 34 31 35 40 49 51 51 43 50 61 46 24 26 29 34 36 44 61 58 77 93 85 41 8 7 7 8
97 96 95 95 93 91 86 85 96 97 96 97 99 97 93 87 80 73 61 56 43 45 48 50 44 40 38 37 37 38 38 43 47 45 44 52 64 56 29 28 31 34 43 69 57 59 87 94 79 26 7 7 7 10
95 95 90 87 88 81 90 93 89 93 100 100 100 98 97 92 92 79 66 50 48 47 43 35 29 30 32 38 37 35 40 48 50 48 49 58 66 62 38 31 32 40 69 69 55 72 94 94 72 16 6 7 8 13
96 93 83 74 80 75 81 90 94 99 99 95 93 97 94 89 81 68 55 52 55 50 36 33 35 36 38 54 62 57 57 54 55 53 56 67 78 77 50 32 35 50 72 73 88 93 95 93 45 8 6 7 9 18
89 82 70 66 70 73 78 79 83 86 90 95 96 95 86 74 64 56 57 61 66 52 38 34 39 44 48 57 66 72 73 68 62 77 78 75 86 80 39 36 39 66 82 92 95 95 95 84 21 6 7 8 11 26
78 71 77 85 77 76 77 69 70 78 83 89 80 75 66 59 62 65 70 67 46 37 36 38 41 46 49 49 60 76 79 77 79 76 76 95 95 57 35 36 46 79 93 93 96 96 92 60 10 7 8 10 17 36
68 70 74 72 76 74 73 79 87 93 89 82 76 74 75 76 72 74 70 48 41 41 43 45 46 47 53 57 57 61 73 74 73 80 91 93 86 42 35 41 77 96 93 95 96 94 85 34 7 8 10 14 27 45
78 73 72 70 75 77 84 87 86 84 79 77 77 77 74 77 73 61 48 40 37 39 43 46 48 52 58 64 74 81 76 80 84 93 93 97 64 38 46 80 94 90 91 95 96 92 64 13 8 9 13 23 40 47
86 79 78 81 89 92 92 89 89 91 91 92 84 81 82 67 43 36 31 38 41 35 38 48 51 53 58 59 68 73 68 80 95 96 95 63 40 54 84 63 57 82 95 97 94 80 43 9 9 12 22 38 47 37
100 99 98 95 92 89 88 92 94 94 90 90 92 83 61 58 54 35 30 36 40 42 44 46 48 53 58 68 59 57 70 89 95 94 76 56 79 95 88 80 88 95 96 95 93 65 12 8 11 20 39 48 38 21

GFSWCAN_700_rhum_090.txt.gz
RH
77 63 47 43 12 8 5 5 15 28 36 26 10 11 12 16 22 28 37 26 24 23 23 28 30 33 32 30 29 30 31 32 32 32 33 34 34 37 33 27 31 28 28 36 48 48 39 34 35 32 28 27 28 28
76 64 49 44 20 7 7 4 12 21 33 41 28 11 10 13 16 20 28 30 30 27 24 24 28 30 34 36 31 36 44 48 43 39 39 37 36 36 36 28 28 33 24 25 31 23 28 32 33 28 28 27 27 27
80 74 52 45 37 7 10 4 8 16 32 37 43 35 12 11 15 19 20 26 26 29 29 26 26 28 27 31 30 30 43 43 44 47 46 45 36 37 36 28 28 26 27 27 21 16 17 20 22 24 24 26 27 29
84 79 60 46 46 13 10 5 4 13 29 36 42 45 43 15 13 15 18 19 21 28 31 27 33 31 32 35 34 32 36 38 37 39 40 44 40 36 35 35 30 25 24 23 18 18 20 21 22 25 26 27 28 27
81 83 65 52 49 35 7 11 4 8 19 33 42 47 51 48 21 10 14 15 17 22 26 27 28 26 32 29 36 41 46 48 47 45 42 44 39 40 34 29 16 16 12 14 12 15 17 17 20 23 24 25 26 29
81 86 72 62 51 49 14 11 6 5 14 28 32 45 53 57 57 33 11 19 21 20 20 20 19 21 25 32 37 36 39 44 51 61 62 57 44 51 43 28 8 12 14 14 13 14 15 16 18 21 24 26 24 21
78 93 81 72 57 53 42 8 13 4 8 20 30 30 36 52 56 59 42 18 16 19 22 18 13 15 20 22 25 29 32 37 44 49 43 40 39 50 39 17 9 15 13 16 19 17 16 19 19 18 16 17 18 20
86 95 91 75 71 56 54 22 11 12 4 11 18 23 29 32 48 54 60 60 30 18 17 13 12 14 15 19 26 29 35 40 41 37 31 29 27 27 18 10 11 11 8 8 11 15 16 17 15 14 16 18 18 16
98 95 97 77 79 66 60 47 10 17 14 5 11 22 23 33 44 53 61 64 64 46 34 19 17 17 20 23 28 32 43 48 47 48 51 39 29 20 12 15 17 15 11 9 7 8 11 14 17 19 20 16 15 16
100 100 100 81 86 85 68 63 28 9 20 14 6 11 26 37 53 57 63 68 76 65 53 38 30 28 30 33 36 34 48 51 57 44 37 23 9 12 11 12 16 22 20 17 13 13 16 20 21 18 15 15 17 18
100 100 100 93 88 94 85 73 51 13 14 19 12 9 26 51 54 59 57 63 58 43 34 28 28 28 30 29 32 34 42 48 56 48 38 27 12 11 10 9 8 8 12 23 23 21 23 24 20 15 16 18 18 18
100 100 99 100 91 95 94 81 71 20 20 22 17 17 26 55 63 58 59 49 43 36 32 29 28 28 29 30 30 36 38 38 41 39 35 23 16 14 10 8 7 6 6 9 15 17 17 15 14 17 18 18 19 19
99 99 100 100 98 93 95 92 85 30 29 29 28 28 25 38 58 62 53 48 40 36 31 31 32 32 34 35 36 31 34 45 44 42 30 18 13 9 8 8 7 10 13 11 12 14 14 16 18 19 19 19 20 21
99 99 100 100 100 97 96 95 96 50 38 49 47 46 30 30 25 26 33 39 38 35 34 35 34 31 34 36 40 37 44 41 45 38 21 15 11 11 10 9 9 14 13 13 15 16 18 19 19 20 20 21 23 23
99 99 99 99 100 98 99 98 97 92 55 58 47 37 22 18 16 23 31 37 42 41 41 43 44 41 35 36 36 37 38 37 34 25 18 13 12 12 11 12 14 12 12 14 16 19 20 20 21 22 24 24 24 22
97 98 98 99 99 98 98 99 98 96 93 59 47 32 17 18 18 22 39 40 43 46 47 49 49 43 38 34 39 34 37 27 25 23 14 12 16 12 10 10 14 14 14 16 18 21 21 22 23 26 29 30 24 21
98 97 98 100 99 98 98 98 97 96 96 96 67 49 31 26 18 23 42 49 51 50 50 50 46 42 38 36 31 31 24 24 28 26 20 17 13 13 15 18 12 13 15 17 20 22 22 23 27 37 32 40 45 20
98 97 98 98 98 98 97 97 97 96 94 91 78 65 64 48 37 28 35 46 45 47 54 58 53 47 42 36 23 21 29 34 29 27 35 35 27 26 26 26 20 15 16 18 21 22 23 26 35 32 50 74 59 16
97 98 98 98 97 97 98 97 96 91 82 81 73 69 70 88 92 81 54 46 53 60 66 66 61 40 14 11 12 22 32 40 48 46 47 45 30 30 44 44 22 18 18 19 22 24 25 30 33 42 73 87 43 40
98 98 98 97 97 97 97 97 94 96 96 87 83 72 71 81 95 94 93 80 52 66 71 59 31 22 21 18 17 19 23 30 34 37 40 44 45 42 53 60 49 28 18 19 23 26 28 32 34 57 76 70 65 94
98 96 97 97 97 97 97 94 94 86 91 100 93 85 80 78 93 98 96 97 95 84 65 61 61 59 59 61 44 27 26 26 28 31 38 44 45 40 38 53 62 63 24 20 24 28 30 34 35 60 65 74 94 81
95 98 97 98 97 97 97 94 93 91 93 100 100 99 88 82 81 89 96 96 89 80 67 60 54 57 58 59 47 39 35 28 22 21 24 32 48 49 40 36 41 65 54 23 28 30 32 34 37 49 62 88 92 67
97 97 97 98 97 96 96 96 97 90 98 100 100 97 92 86 80 82 89 78 69 62 56 53 53 55 55 53 53 50 49 46 35 25 23 25 32 47 51 44 38 51 60 27 30 33 33 34 36 54 65 92 93 56
97 98 98 95 95 96 94 94 96 98 97 100 99 97 92 89 84 82 74 62 58 61 72 57 54 52 49 46 44 43 42 42 39 36 32 31 36 45 52 48 44 53 55 29 31 34 35 34 43 62 74 93 93 40
98 96 96 96 96 92 90 92 88 88 100 98 100 100 96 94 91 85 66 52 55 57 71 55 47 43 42 43 41 41 42 42 40 39 37 36 38 41 48 52 48 56 57 29 31 35 40 40 54 62 82 95 92 18
96 95 92 91 86 80 83 82 80 90 100 100 100 100 100 98 96 88 68 59 58 59 57 51 51 47 46 46 44 40 36 34 33 31 32 34 37 40 45 47 46 57 57 31 34 38 46 42 51 67 94 95 74 10
96 95 86 79 78 72 76 88 92 92 94 97 98 96 98 94 85 74 64 56 52 50 50 53 55 57 54 48 43 37 33 37 41 46 46 46 52 50 48 48 56 65 46 35 38 39 38 49 69 96 95 95 46 8
94 80 68 69 72 73 75 81 85 90 86 92 93 95 87 77 70 65 55 62 58 58 59 63 66 64 55 44 39 35 36 51 68 73 64 64 65 71 81 77 73 75 48 36 40 45 59 74 96 94 95 80 18 9
79 68 76 84 77 74 75 68 65 70 71 72 72 72 68 59 54 57 76 70 67 68 69 70 67 56 47 42 37 37 41 50 60 66 72 75 74 78 79 82 95 94 84 47 43 62 80 95 92 95 94 40 12 9
72 72 73 73 74 69 64 70 65 69 70 73 76 76 76 71 69 74 72 72 74 76 76 74 64 48 43 43 43 42 43 42 44 54 67 67 67 72 73 85 91 94 77 42 56 79 92 93 94 95 73 23 10 11
92 87 80 77 70 64 64 67 71 77 80 83 85 87 86 86 79 72 71 73 75 75 74 66 63 47 46 46 44 47 47 48 57 61 54 53 58 59 80 98 79 51 42 46 85 88 89 95 94 93 49 18 10 14
93 87 79 76 73 75 81 89 92 95 94 94 93 90 86 84 72 72 72 74 76 73 62 51 48 45 41 40 40 43 44 48 54 52 61 64 58 61 90 81 56 44 55 90 81 78 93 94 95 66 32 11 13 22
98 98 96 95 98 97 94 97 95 95 95 92 88 86 84 83 80 75 71 71 66 44 40 42 42 41 42 43 42 42 45 52 50 54 54 56 64 85 94 58 46 73 92 77 86 95 95 96 85 47 12 13 18 36

GFSWCAN_700_rhum_093.txt.gz
RH
65 71 74 68 43 35 6 4 6 22 35 37 20 8 8 10 11 14 17 16 17 18 21 25 30 33 35 33 26 27 26 28 25 27 33 37 35 33 33 28 27 32 28 29 44 49 34 26 33 32 23 23 24 27
71 76 75 76 48 42 9 6 4 14 29 37 40 21 9 9 10 10 13 19 17 17 17 16 19 23 28 33 36 30 32 37 38 39 36 36 35 35 36 33 25 28 27 24 30 22 19 23 25 26 25 26 26 27
70 80 81 77 57 48 27 7 4 6 16 34 40 42 25 10 10 11 11 14 19 20 18 18 18 17 19 21 23 30 32 28 37 41 45 48 37 37 36 25 23 21 23 25 22 14 14 16 18 18 22 23 24 24
76 74 83 82 64 50 47 9 8 4 10 21 35 44 45 35 11 12 14 14 16 18 19 19 20 19 20 20 21 23 27 27 33 38 40 39 39 35 34 34 28 25 28 23 17 12 14 14 16 20 21 24 25 25
78 77 81 84 69 55 52 33 8 7 4 12 26 37 48 50 46 26 10 14 17 20 25 18 15 16 19 22 24 27 24 28 33 36 39 44 37 41 34 27 14 16 11 13 11 12 13 15 18 19 20 22 23 22
83 77 82 88 80 66 54 51 17 10 5 7 17 25 34 48 52 52 46 17 11 20 23 22 11 10 13 16 19 25 32 37 45 47 47 45 36 52 48 30 9 11 15 19 19 18 14 13 15 17 20 22 22 21
92 86 82 90 94 74 62 58 48 10 13 5 11 25 33 34 40 49 52 47 32 16 15 16 13 10 12 13 17 24 29 37 46 49 38 43 43 54 44 21 16 23 23 24 20 21 19 18 19 19 19 18 18 18
99 98 94 96 97 89 73 62 57 34 11 11 6 14 24 34 33 30 40 51 59 59 43 26 19 20 21 20 21 22 25 29 27 28 26 30 45 55 33 21 16 14 13 13 10 10 15 18 18 16 14 16 20 21
98 98 99 99 98 99 81 70 68 59 18 13 12 7 16 21 26 33 45 47 59 68 65 39 26 21 26 26 24 29 32 36 37 30 26 27 31 27 19 18 19 22 25 22 16 10 12 14 13 17 20 21 19 16
100 92 98 95 96 100 91 79 69 72 46 14 20 15 8 13 27 39 46 56 63 62 71 52 46 42 40 33 35 36 38 41 45 34 29 25 17 13 13 9 11 9 10 16 24 17 13 17 21 24 24 17 16 17
100 98 96 99 99 98 99 93 86 75 74 28 23 23 16 20 43 60 58 60 60 56 42 37 40 48 51 45 40 36 35 37 36 36 33 24 18 17 14 13 11 8 7 8 15 28 25 27 28 25 18 16 18 19
98 100 100 95 99 99 99 99 100 93 79 45 35 36 28 22 46 57 60 55 47 45 34 28 30 32 32 35 34 38 40 39 41 39 32 24 21 19 15 8 6 7 7 7 10 19 24 24 21 17 17 19 19 19
97 93 99 98 98 99 99 98 98 100 94 64 42 55 32 35 46 58 54 48 36 32 25 28 30 33 32 33 37 34 38 42 45 42 31 24 22 16 9 7 6 6 8 12 10 11 13 14 16 19 20 19 20 22
42 56 98 99 99 99 98 99 98 98 99 90 49 40 30 46 29 22 28 31 34 32 34 32 30 30 33 37 40 40 43 40 45 43 26 24 20 12 10 12 12 9 12 12 9 12 14 16 20 21 20 20 24 26
97 61 98 98 99 98 98 98 98 98 98 95 70 46 37 26 21 28 21 33 38 40 39 35 35 36 37 36 36 38 39 38 36 26 24 23 19 12 12 13 12 12 13 11 11 13 16 18 21 21 21 24 30 37
96 99 98 95 98 98 98 98 97 97 97 96 88 63 40 25 22 25 29 30 41 46 42 43 44 44 42 41 40 35 36 29 24 25 26 26 20 14 16 14 16 19 22 15 14 15 17 20 22 22 23 27 32 40
95 92 84 98 98 98 98 97 97 96 96 91 84 82 60 44 23 23 31 38 46 49 49 48 48 46 43 41 38 36 23 21 24 28 29 26 23 22 24 36 39 37 33 21 16 17 18 21 23 24 25 29 32 60
76 94 99 99 98 97 97 96 98 96 88 80 82 76 69 69 58 63 76 42 42 42 48 50 48 43 35 30 17 14 20 26 26 31 32 28 33 41 42 48 47 32 37 44 22 20 19 21 23 25 26 28 37 70
50 84 97 98 98 97 97 96 96 92 76 76 78 78 71 67 70 89 93 95 76 55 56 59 54 48 27 19 18 17 21 29 33 33 27 32 38 34 37 37 32 34 37 42 54 34 19 21 24 27 28 29 44 66
42 48 90 98 97 97 97 96 96 93 88 82 80 85 76 71 77 93 95 96 97 92 73 68 54 42 33 32 30 30 29 29 30 35 37 35 36 33 28 29 36 42 39 39 55 60 36 22 25 29 30 29 45 57
38 45 84 97 97 98 97 95 96 87 85 88 87 100 94 78 77 88 95 98 97 91 84 72 63 61 89 94 90 73 50 50 53 56 58 49 32 22 19 20 25 36 39 43 41 46 65 41 28 31 32 27 35 52
61 86 98 97 98 98 98 94 94 89 85 84 100 100 98 93 83 85 96 97 85 76 74 73 68 83 94 84 78 74 70 64 62 61 56 49 46 46 41 30 24 23 26 36 47 42 45 52 32 32 34 26 31 59
91 84 98 97 98 96 96 93 95 93 100 94 93 99 96 89 83 89 94 79 65 65 67 69 76 94 86 81 75 59 53 53 53 52 52 52 51 50 49 42 33 29 27 35 50 50 50 54 35 34 36 26 39 66
99 98 99 97 96 96 94 94 90 99 99 98 100 98 94 92 89 90 78 59 56 58 59 58 68 82 79 77 78 60 49 48 46 46 45 44 42 42 42 41 39 38 39 44 51 54 55 60 38 36 34 27 53 67
100 97 97 96 96 94 89 88 83 82 83 97 100 100 98 96 94 91 66 55 58 54 53 54 56 64 63 69 78 58 48 45 43 42 40 40 38 36 34 33 33 36 39 43 54 58 60 61 38 39 32 34 56 64
98 96 94 90 92 81 78 84 70 66 80 95 100 100 100 98 98 87 68 68 63 57 55 62 65 78 80 82 68 52 46 46 46 45 42 40 37 34 32 34 38 47 53 57 58 59 65 54 40 40 33 45 55 86
97 95 90 92 92 78 74 71 82 88 85 90 85 99 100 97 88 75 69 64 60 66 65 61 62 67 66 62 56 52 52 50 49 46 44 39 33 33 35 43 52 58 57 53 54 63 65 43 43 37 41 55 86 95
86 81 72 73 81 81 80 75 75 75 78 85 91 93 91 82 72 70 67 62 73 74 71 63 58 53 54 57 59 60 57 54 52 48 42 37 36 37 42 49 58 67 67 65 69 70 46 42 42 38 56 87 96 96
66 61 74 80 90 92 87 78 70 69 69 68 68 74 66 58 57 60 65 77 85 77 74 74 66 64 66 68 69 65 61 58 51 44 39 35 34 44 54 59 67 75 74 68 81 75 45 43 40 48 80 96 96 94
54 59 67 76 85 83 68 74 71 72 71 71 73 73 71 67 68 73 74 85 80 80 85 80 71 73 73 74 72 69 65 57 48 40 37 36 41 42 44 54 64 68 64 72 95 76 62 70 59 86 97 97 96 94
42 44 49 68 65 64 76 81 88 84 80 77 76 78 76 79 83 89 85 82 82 86 81 79 76 75 75 73 74 77 72 59 47 38 37 38 41 48 54 62 65 64 66 90 97 95 80 73 94 96 97 97 95 93
58 72 71 71 70 76 82 81 96 96 92 89 82 77 77 78 77 73 67 73 77 78 76 75 74 71 73 78 76 66 60 51 46 36 35 39 47 54 58 63 66 68 92 99 97 73 56 89 98 97 96 95 94 55
66 64 69 84 88 96 100 100 98 98 95 90 87 87 84 83 75 66 65 63 67 70 70 69 72 77 73 60 49 41 34 34 36 33 35 42 53 55 55 60 65 93 99 88 57 60 93 97 96 95 94 93 43 16

GFSWCAN_700_rhum_096.txt.gz
RH
63 79 77 78 75 55 45 10 6 12 31 38 37 14 8 7 8 9 9 10 12 12 12 14 15 17 18 19 20 21 19 20 18 25 28 30 31 28 27 25 26 27 27 26 39 48 34 18 21 25 21 18 18 18
68 76 77 83 84 74 47 41 9 5 17 34 40 42 16 9 9 9 10 10 10 12 13 12 12 14 14 17 19 17 21 25 24 23 28 32 33 33 33 31 22 24 20 23 22 14 14 14 18 19 19 21 23 22
77 69 83 76 80 83 63 48 26 9 5 19 36 41 44 24 11 11 12 13 12 12 13 14 14 14 16 16 17 18 18 22 25 25 29 34 30 31 34 26 25 22 24 25 22 14 13 14 15 17 18 19 20 22
80 81 71 78 79 76 76 55 51 14 8 7 21 40 43 46 42 17 13 15 15 14 13 13 14 15 19 20 20 21 24 26 26 27 32 35 35 36 38 36 32 32 32 28 20 13 16 14 12 15 16 17 21 22
49 92 86 67 77 79 82 73 54 49 11 7 10 29 45 45 46 47 47 29 14 17 14 13 14 15 16 19 23 24 26 28 34 36 34 39 39 40 32 29 12 18 15 18 20 20 17 15 15 15 14 14 15 16
40 52 89 85 72 79 79 88 69 55 44 12 7 12 38 48 49 49 49 48 48 35 21 12 10 10 11 11 15 23 28 32 40 43 44 38 34 52 50 28 8 11 18 24 25 26 23 22 20 17 17 19 20 21
30 69 61 81 84 80 83 84 89 68 57 35 14 8 15 37 45 47 50 48 52 51 46 32 25 18 12 9 13 17 22 33 43 47 37 43 49 67 51 19 16 16 13 13 14 14 13 20 25 23 21 21 20 18
27 66 100 92 95 84 87 91 96 87 69 58 30 16 8 13 29 39 43 44 51 62 68 62 40 29 25 22 23 25 25 26 32 41 38 35 41 51 33 18 14 14 13 14 16 16 13 10 18 24 23 21 18 19
24 56 98 100 99 95 92 96 97 98 86 68 61 23 18 10 9 16 36 46 53 60 76 63 47 34 30 27 26 27 29 31 36 36 43 44 36 27 20 18 15 10 9 9 10 15 18 11 11 18 18 18 20 19
21 11 94 99 99 99 100 98 99 98 98 81 71 60 24 18 15 12 14 29 50 55 72 44 44 52 41 36 35 38 38 37 42 38 37 34 19 18 16 14 11 11 11 9 7 9 17 16 10 12 17 19 18 16
8 5 12 89 98 100 99 99 100 100 99 88 83 76 46 28 26 23 33 31 56 64 44 34 42 67 58 60 54 50 39 35 36 37 41 33 20 19 19 19 16 8 5 7 7 7 8 22 17 19 21 16 16 18
6 8 13 24 93 99 100 98 99 98 100 99 97 88 60 40 33 25 52 38 31 48 49 39 39 57 72 73 73 54 41 36 38 44 39 28 19 20 21 18 8 7 8 6 7 9 11 21 26 24 16 16 19 20
6 10 18 18 74 99 100 99 99 99 98 98 99 96 84 57 35 46 37 22 26 29 28 32 39 42 46 50 52 40 40 41 46 43 34 24 23 24 22 12 10 12 14 9 11 10 10 14 18 18 18 20 21 20
34 25 28 48 98 100 98 98 98 98 98 98 97 94 82 54 38 30 22 18 21 24 31 32 34 40 43 43 44 40 44 42 43 43 26 22 23 23 20 12 11 12 12 12 11 9 11 14 15 17 19 21 21 22
77 70 98 64 80 100 100 98 98 98 97 97 96 87 78 66 43 25 21 22 24 28 30 36 38 39 38 41 40 41 42 41 38 27 25 24 25 24 20 14 14 14 17 20 24 22 16 14 16 18 20 22 22 23
86 73 85 96 89 87 100 98 97 97 97 96 95 82 74 66 56 51 37 30 34 34 40 43 40 40 39 37 38 37 39 32 27 25 25 25 26 23 20 18 18 20 24 29 38 40 28 18 17 18 20 23 24 24
91 72 79 95 97 99 100 97 97 97 97 95 78 73 80 77 59 39 31 36 40 41 44 45 42 39 44 43 39 36 29 24 27 28 27 30 26 22 24 25 29 37 35 42 39 35 33 28 20 19 20 23 24 26
87 80 69 74 100 98 97 96 98 96 95 77 66 63 71 78 76 57 59 50 44 46 51 48 45 44 43 33 22 20 23 25 28 28 29 30 32 33 32 34 33 30 34 35 34 35 40 42 47 33 22 21 24 28
87 91 81 67 88 97 98 97 97 96 85 73 69 67 74 75 72 75 93 96 96 97 94 82 55 50 41 30 25 24 30 32 33 35 35 32 31 33 36 38 35 29 27 26 29 32 35 40 43 56 48 26 27 30
64 82 77 70 73 97 97 97 96 96 92 80 76 79 83 78 76 78 91 95 97 97 95 90 79 61 52 39 36 47 67 86 60 50 48 45 49 53 49 52 52 43 31 26 24 22 25 28 36 48 57 53 29 32
73 57 64 80 74 65 98 96 92 87 80 82 74 91 100 92 90 86 79 84 97 92 74 64 68 66 70 76 93 96 96 96 97 98 98 92 82 78 71 68 62 55 52 52 51 47 39 30 35 49 52 57 45 34
88 91 89 70 77 86 98 97 97 91 89 80 95 98 98 94 93 96 93 95 89 66 66 66 66 66 72 87 93 95 98 97 97 94 82 71 64 61 60 59 57 54 54 52 51 50 42 35 37 50 54 54 51 39
99 99 95 88 100 98 97 96 98 92 92 93 100 100 94 90 89 95 98 86 65 62 65 64 65 67 68 79 87 86 89 93 97 97 83 65 54 50 50 50 50 46 45 44 42 41 40 42 44 52 60 58 54 44
98 100 100 100 99 93 95 95 94 99 97 100 96 94 85 88 99 100 87 62 51 56 57 58 59 58 59 68 75 73 76 84 88 92 94 78 53 43 44 43 43 40 37 34 32 32 37 43 52 57 60 62 54 46
99 97 96 97 93 97 88 73 78 89 87 84 100 96 98 99 100 95 70 52 55 56 56 56 52 53 57 55 54 55 58 63 66 76 89 72 47 46 44 43 41 35 32 31 32 41 45 46 50 58 64 65 53 46
97 93 96 82 82 93 92 89 77 76 80 83 92 93 93 100 98 90 61 58 56 55 54 50 54 57 58 57 58 64 74 75 74 83 69 50 47 47 46 43 35 32 34 35 44 48 49 51 55 62 69 65 54 42
94 94 76 68 81 85 81 68 73 76 76 88 84 91 100 98 92 65 55 57 50 48 57 62 62 64 63 61 61 67 76 73 61 54 54 53 52 51 45 37 30 33 34 45 61 66 64 60 60 68 70 56 48 37
89 94 92 78 67 56 71 83 81 71 70 84 87 95 97 83 64 54 57 58 60 70 88 81 73 73 67 63 60 58 56 58 62 61 55 51 52 47 40 33 28 30 36 51 64 72 73 69 71 70 56 51 39 44
72 69 69 73 75 86 88 76 68 61 53 69 84 89 81 67 59 60 61 66 78 84 81 78 75 70 68 67 58 56 61 68 69 62 59 58 52 41 38 29 29 34 42 48 62 72 68 73 79 60 49 44 39 48
59 56 61 70 97 83 63 57 47 53 71 76 80 86 84 72 66 75 73 71 73 78 76 76 76 74 78 76 64 65 68 72 71 68 69 64 48 34 32 33 36 41 48 59 64 64 62 70 89 86 58 44 63 94
42 48 51 51 53 56 59 54 52 54 63 71 77 82 69 80 83 82 76 74 74 78 80 77 79 78 86 94 82 74 72 76 72 72 69 60 46 33 34 35 41 48 59 66 68 68 77 88 69 61 72 83 95 97
49 51 46 45 43 42 44 44 47 52 57 61 65 72 74 84 83 68 66 73 71 66 62 64 72 79 90 87 89 87 83 78 74 73 63 46 41 33 34 37 44 52 60 64 69 85 93 78 84 92 96 98 96 93
63 68 48 48 53 54 51 64 71 77 72 70 68 72 80 85 69 57 56 58 56 58 65 71 70 73 82 88 91 90 82 74 71 56 36 32 32 35 40 44 50 60 60 66 82 100 98 90 82 85 98 94 93 94

GFSWCAN_700_rhum_099.txt.gz
RH
63 55 64 87 82 82 88 69 48 12 6 24 37 34 12 8 8 10 11 10 11 10 11 10 12 12 13 14 17 20 20 20 19 22 24 24 27 25 24 21 24 27 25 25 38 49 30 14 15 16 15 15 16 17
59 60 59 70 87 77 80 89 62 49 11 6 20 37 40 19 9 10 10 12 11 12 11 12 12 12 12 12 13 14 18 23 26 27 26 27 30 29 28 26 18 22 16 18 18 11 10 12 15 17 14 14 14 15
64 58 55 64 68 84 73 74 82 57 50 14 6 16 39 43 30 10 10 12 12 13 12 11 13 14 14 14 16 16 16 20 23 30 37 39 31 30 33 25 25 22 23 23 20 15 16 18 20 21 20 22 21 21
58 58 54 53 56 58 72 77 75 76 58 50 17 7 13 39 44 43 25 14 14 12 12 10 11 12 13 14 17 19 21 21 22 27 34 39 43 38 35 32 27 26 24 21 18 12 18 12 11 12 13 17 17 18
45 51 50 47 53 52 51 62 78 81 77 58 53 20 8 10 36 46 48 48 44 38 26 20 16 12 11 12 14 16 18 22 30 29 27 37 40 46 40 34 12 13 12 16 18 18 18 16 17 15 14 14 16 15
40 43 42 38 39 48 50 50 67 74 80 79 61 55 23 10 8 28 54 45 47 52 52 43 30 28 27 20 13 12 13 15 22 28 31 30 26 44 46 27 10 16 21 22 21 20 18 19 20 22 22 19 16 17
47 49 46 36 30 39 52 49 57 76 83 80 80 65 57 27 12 8 26 46 51 49 58 51 38 30 24 18 10 11 13 18 24 27 25 27 35 58 38 22 17 20 15 13 14 14 11 15 13 17 17 22 19 20
19 38 47 38 30 26 49 62 80 84 88 89 86 80 68 60 34 12 11 24 46 57 60 68 44 30 28 29 30 27 26 29 30 36 30 31 34 46 31 17 16 16 14 13 11 10 11 15 18 16 13 22 24 24
30 34 26 26 37 80 100 73 88 98 99 100 100 96 82 72 60 34 16 11 19 39 66 53 40 37 29 30 32 32 32 31 37 34 37 51 42 26 18 19 19 19 15 11 11 10 8 10 17 16 12 24 26 20
4 7 16 31 22 43 100 100 100 100 100 100 100 100 96 80 70 55 36 25 17 18 23 12 21 41 30 38 42 42 42 42 47 44 45 47 23 17 20 19 20 18 14 14 6 7 8 7 15 17 16 16 19 22
4 4 4 18 28 24 68 100 99 99 98 99 100 99 100 97 84 65 41 33 33 22 20 13 18 32 42 58 64 57 53 49 43 46 47 43 26 22 20 20 20 20 11 6 8 6 8 9 12 19 17 20 23 19
6 5 4 5 9 8 41 96 99 98 98 98 98 99 99 97 90 73 44 44 30 22 20 16 19 40 67 71 82 74 65 59 46 50 47 34 24 22 23 24 19 10 12 14 12 8 9 10 12 22 25 27 22 18
8 7 6 5 6 6 7 43 100 98 98 98 98 97 96 95 85 54 45 41 33 26 24 23 32 37 58 77 88 72 51 41 42 42 36 28 24 26 26 22 13 11 11 13 13 12 10 9 10 15 18 17 17 19
10 11 13 15 14 10 11 46 98 98 98 98 98 96 95 86 81 69 64 53 35 26 31 31 35 38 44 60 61 42 43 41 38 42 27 25 25 23 24 22 20 14 13 15 16 18 24 26 17 14 15 16 18 21
11 12 17 32 43 25 41 85 96 98 97 98 96 91 77 74 71 57 40 36 34 32 41 44 44 43 44 43 42 43 43 42 36 26 24 23 22 23 25 26 24 21 19 18 21 22 22 27 38 26 19 18 18 21
12 12 13 46 74 83 98 98 85 98 98 98 95 85 66 74 71 72 69 58 48 42 46 55 48 51 49 39 39 37 40 29 24 22 22 22 23 24 26 26 27 24 26 29 31 27 29 37 36 31 28 27 22 20
12 12 20 55 76 76 81 98 86 87 98 96 78 70 66 73 76 76 71 65 62 67 76 67 57 43 42 41 40 35 25 23 26 25 26 26 24 25 25 26 28 26 24 26 27 25 26 28 32 34 36 37 37 39
14 24 35 88 90 94 100 96 99 97 98 92 76 66 70 65 68 71 80 94 90 73 74 75 64 54 42 37 36 22 26 27 28 29 26 26 31 38 35 32 32 32 35 34 35 42 45 44 30 26 27 29 31 45
33 50 51 87 100 98 97 98 97 97 94 84 69 61 64 65 68 72 81 95 96 97 97 96 93 78 67 58 48 38 32 31 38 40 41 60 69 48 43 41 39 38 50 55 53 58 59 54 50 49 41 33 30 42
71 71 68 75 99 98 98 98 92 97 95 90 72 55 70 78 85 87 92 94 94 98 97 92 67 65 66 64 71 89 92 79 65 60 62 66 88 95 83 73 69 79 86 80 74 70 66 57 54 54 53 45 36 38
78 74 80 78 75 98 98 97 96 93 96 100 82 85 80 72 80 82 89 95 97 95 86 62 57 59 66 73 81 97 96 97 96 98 97 99 100 98 97 96 97 93 78 67 65 64 59 55 55 55 52 45 40 44
82 99 99 96 99 100 96 91 97 94 89 88 82 94 92 85 79 83 93 99 94 77 64 63 62 66 68 70 85 98 98 97 92 89 95 98 100 99 96 94 85 65 58 54 55 55 53 47 44 43 44 43 42 48
98 98 98 100 99 96 89 80 77 68 74 64 61 76 86 86 83 95 100 93 68 58 58 55 57 64 64 67 86 91 89 84 81 77 80 83 95 98 96 94 89 80 59 50 50 45 40 38 35 34 38 40 49 60
97 98 98 98 96 97 80 79 75 64 67 79 81 94 78 84 90 100 96 70 51 56 54 54 59 61 60 56 58 64 64 64 73 73 72 73 85 88 84 75 85 88 55 48 44 42 37 34 33 33 38 42 55 66
100 97 97 96 97 95 87 90 99 93 74 74 80 89 94 93 100 96 82 55 46 44 47 51 49 48 47 50 52 55 56 58 60 60 62 66 67 66 65 66 77 60 47 45 43 37 33 36 39 44 50 55 62 67
97 95 91 87 78 88 83 74 74 69 76 87 80 92 100 100 100 93 61 40 44 45 50 58 57 60 66 58 59 61 64 66 65 60 61 67 71 70 70 74 54 47 46 44 39 34 34 46 59 60 54 54 60 66
96 87 74 74 87 94 82 80 93 89 81 77 80 100 99 100 96 56 35 45 61 64 74 74 72 70 64 66 70 70 68 65 63 64 73 70 70 67 57 56 56 49 42 37 33 35 51 65 67 67 64 60 62 67
96 93 79 72 72 75 84 85 84 81 78 78 82 93 96 79 59 30 46 56 66 64 68 79 89 95 94 94 95 94 79 68 63 63 62 62 66 64 62 59 53 46 38 31 32 38 47 67 66 64 71 67 68 60
91 89 78 74 64 67 76 81 83 74 68 70 74 80 68 56 52 48 54 74 79 77 70 76 79 91 94 93 88 82 78 75 64 62 64 64 68 68 65 56 47 38 33 32 34 44 51 57 64 61 69 74 62 52
72 56 88 83 73 69 63 82 74 86 91 88 84 76 62 48 51 62 65 65 64 58 61 72 76 78 80 81 81 82 79 76 64 63 66 68 70 73 70 60 41 35 35 35 40 45 52 56 58 63 76 86 80 54
66 68 74 70 64 49 45 51 56 58 58 66 77 68 51 43 41 42 42 38 40 54 61 56 62 69 75 79 88 90 88 92 80 79 77 71 73 74 74 69 41 37 38 42 45 58 62 65 64 71 81 71 56 46
29 38 48 60 56 51 48 46 46 48 49 49 40 37 35 33 34 23 25 26 28 38 47 52 57 63 70 75 86 92 92 96 96 96 88 81 82 79 76 67 46 39 42 46 52 60 60 60 73 82 70 63 60 76
77 64 59 62 64 63 60 70 65 56 45 37 32 34 44 52 50 24 11 15 21 34 55 60 57 58 58 59 64 77 93 96 96 94 97 96 89 82 73 49 42 41 42 49 57 59 59 73 88 84 79 82 90 96

GFSWCAN_700_rhum_102.txt.gz
RH
59 58 53 54 61 75 70 67 73 64 42 10 8 28 37 33 13 8 9 10 11 11 13 13 12 12 12 14 16 18 22 20 20 21 22 24 26 26 25 21 21 24 25 25 43 65 40 11 14 14 15 16 16 19
64 62 57 54 55 62 77 72 66 71 67 50 19 5 19 32 38 33 11 8 9 10 12 14 15 15 14 15 15 14 17 19 21 23 24 24 24 26 26 35 20 23 18 20 18 11 10 11 13 17 17 15 15 16
70 70 60 57 54 52 60 77 71 68 73 70 55 34 6 9 26 36 41 31 17 10 8 9 11 13 15 16 17 17 15 18 19 22 26 31 29 29 34 26 24 21 21 24 20 13 15 17 20 20 22 22 24 24
70 68 62 60 54 48 49 56 72 75 73 78 73 58 45 11 6 20 33 39 40 37 31 21 12 11 14 14 15 16 18 20 22 23 28 31 31 27 29 27 21 19 18 17 17 11 17 16 16 15 14 15 16 20
76 71 64 59 51 43 44 43 48 57 75 88 85 76 62 51 22 7 9 23 36 40 35 30 28 31 30 23 15 14 18 23 25 27 28 32 28 37 28 23 10 12 14 16 16 20 20 20 21 22 23 22 20 17
80 74 61 54 55 51 46 39 38 41 58 66 87 96 81 66 55 34 12 16 17 29 32 30 21 19 19 19 26 32 24 18 26 32 30 29 28 42 35 26 16 19 23 25 22 18 14 16 22 25 25 31 30 28
72 57 42 36 42 45 42 37 34 39 48 51 74 92 96 88 71 57 33 28 15 18 33 25 14 11 16 21 23 20 19 17 19 22 24 30 33 49 32 21 16 22 21 16 14 13 12 16 14 18 18 19 24 26
40 28 21 22 26 23 24 33 34 40 57 66 83 92 100 98 92 79 55 30 18 18 26 21 17 15 13 14 21 24 31 34 31 36 31 29 34 37 31 14 21 20 20 20 19 13 11 11 10 12 19 22 20 25
6 5 5 4 7 15 20 21 33 63 100 80 100 100 99 98 99 94 83 65 40 31 38 21 18 21 16 18 22 27 33 36 39 35 32 39 32 25 12 22 24 27 25 24 23 14 12 7 8 8 12 18 15 25
3 3 3 3 4 15 16 21 46 100 98 99 96 99 98 99 92 92 84 76 58 46 40 42 37 34 36 30 33 41 41 42 46 40 41 40 20 12 16 20 20 21 20 19 18 14 7 8 8 8 10 14 12 14
4 4 4 4 4 3 7 28 33 60 99 98 98 98 98 99 100 97 95 82 66 50 44 41 38 34 39 39 51 52 57 52 52 49 51 44 16 15 18 20 20 21 21 20 11 13 16 10 7 8 9 14 14 19
6 6 7 6 6 5 4 11 24 44 91 98 98 97 97 97 98 95 90 76 63 51 44 40 34 35 35 47 62 68 64 59 50 58 54 36 17 19 23 24 24 22 15 11 12 13 17 11 8 8 12 18 20 22
7 8 8 8 7 8 7 7 12 17 80 97 99 98 96 92 94 98 80 67 54 45 42 36 38 41 52 61 81 74 72 66 61 52 35 18 17 20 22 25 22 16 13 11 12 16 16 12 10 10 10 11 14 16
8 8 7 8 8 8 9 11 42 75 99 80 98 98 93 84 90 72 68 70 59 55 51 42 42 44 49 61 78 74 67 53 47 44 22 19 22 25 24 23 18 18 16 16 16 17 19 21 23 26 31 26 18 17
7 8 8 7 9 12 32 75 65 83 83 97 94 95 72 65 71 74 66 58 63 58 49 51 46 49 51 57 52 56 49 46 40 26 22 21 19 20 24 24 24 23 22 23 24 27 27 23 24 32 36 32 26 22
7 7 7 9 10 16 56 99 66 91 99 100 96 87 81 77 70 71 75 77 80 93 91 76 64 57 57 49 46 41 49 37 28 25 23 23 23 23 24 25 26 26 26 28 25 22 31 36 32 26 24 33 36 37
6 6 7 13 18 36 45 62 76 84 98 97 90 36 52 75 81 73 80 80 95 96 96 97 96 89 79 56 44 40 33 26 24 28 27 27 28 27 28 32 38 37 33 34 34 29 41 60 60 58 56 38 27 25
10 13 21 23 49 46 58 85 94 97 96 92 88 56 50 40 52 74 73 78 88 93 95 96 96 95 86 65 61 54 46 37 39 37 34 34 34 42 45 57 62 48 42 38 39 37 33 38 69 83 75 65 54 50
56 51 45 56 78 82 79 87 90 100 96 94 93 77 63 67 67 57 75 82 88 94 98 96 97 86 65 60 62 62 56 64 68 61 54 40 42 47 56 68 76 75 84 90 76 69 71 85 85 80 77 70 60 55
75 67 76 81 85 90 97 92 86 82 73 70 58 69 96 94 94 98 97 96 97 98 98 96 80 56 54 60 71 72 81 92 93 93 85 86 97 95 84 84 94 96 95 94 93 94 95 86 72 66 66 64 57 56
94 82 81 85 100 100 100 96 89 97 98 89 84 78 69 65 76 98 97 97 97 95 90 72 63 61 63 65 70 73 84 89 91 92 89 84 78 92 96 96 95 97 96 99 98 96 94 72 66 55 54 52 50 49
83 93 90 79 96 99 96 87 97 94 88 79 83 85 79 76 70 75 77 94 95 86 76 67 60 60 63 64 58 60 64 71 80 82 82 90 91 93 94 93 96 94 94 99 100 100 94 88 67 52 46 41 38 37
98 96 96 89 100 96 91 89 95 91 89 94 98 94 87 70 63 67 77 51 41 42 43 52 57 58 59 54 52 48 55 64 67 74 81 86 84 77 73 73 74 78 82 91 98 95 91 94 56 45 42 38 33 34
98 98 97 96 96 94 90 95 90 88 92 92 85 74 69 61 61 80 74 39 27 27 32 43 47 49 55 55 51 55 62 68 79 82 85 92 89 82 79 76 76 74 75 95 94 84 82 78 54 43 37 34 35 41
99 96 97 91 98 100 100 96 96 94 81 63 74 74 70 80 100 98 83 45 31 24 29 41 50 58 70 72 68 64 64 69 73 69 71 80 77 68 65 63 61 61 66 70 74 75 70 49 43 39 36 38 44 45
98 90 80 85 90 96 96 86 74 68 75 94 84 82 95 100 97 93 54 28 32 41 46 78 90 93 93 94 81 72 68 78 82 78 76 85 88 73 68 69 69 71 73 73 74 64 48 45 42 36 46 57 52 53
97 83 90 82 69 94 97 81 72 92 98 100 94 94 100 96 92 58 31 45 55 62 70 76 78 82 94 93 97 95 87 82 81 84 80 81 77 73 76 72 82 82 80 66 54 53 46 41 39 54 56 51 58 62
88 83 80 97 96 85 62 63 63 84 83 85 92 94 98 91 62 56 63 58 56 69 73 54 47 70 77 84 88 86 96 96 94 96 94 87 72 70 62 58 65 65 62 66 58 46 40 38 45 47 56 57 60 66
62 54 63 77 83 83 94 94 84 68 66 73 87 92 84 62 54 69 79 82 73 56 51 50 48 54 55 60 66 80 88 92 96 94 95 92 87 84 82 72 70 67 61 54 46 41 38 39 42 43 54 62 59 67
55 51 64 65 85 89 82 97 80 73 74 70 69 62 55 50 56 75 73 60 54 49 40 41 45 42 40 46 55 66 77 87 92 94 92 95 96 96 91 86 80 76 72 54 41 38 39 44 48 48 52 56 58 72
68 63 60 68 73 54 52 58 57 54 54 60 67 73 58 52 43 43 43 42 36 32 28 24 30 30 26 26 35 49 57 70 85 89 92 94 96 95 95 96 93 92 84 68 44 40 45 51 56 62 64 63 73 82
70 58 63 58 48 52 61 72 75 68 57 56 55 49 45 45 36 23 22 23 22 19 18 19 23 17 18 20 27 41 50 58 71 80 80 92 94 95 96 96 93 97 90 78 52 45 51 53 59 61 57 68 84 72
62 58 55 73 78 70 58 71 60 57 47 44 42 44 45 46 44 16 15 16 18 26 33 34 38 42 41 37 35 45 50 58 71 76 83 90 96 95 94 93 96 94 93 74 56 46 51 54 55 55 63 78 72 59

GFSWCAN_700_rhum_105.txt.gz
RH
33 52 62 58 53 58 52 54 62 65 69 56 39 11 6 17 33 37 19 9 8 9 9 10 11 11 11 12 13 15 19 19 23 24 27 45 30 42 22 21 20 26 40 60 62 58 54 11 12 11 14 13 16 18
45 54 60 64 58 58 54 51 52 61 63 67 64 51 26 7 7 18 33 37 24 12 9 8 8 8 9 10 11 11 16 20 20 22 26 27 30 40 29 33 27 22 16 31 22 19 12 11 13 15 16 19 21 20
54 64 62 66 63 58 57 49 49 49 51 54 63 67 60 45 16 6 9 21 32 36 30 23 21 21 11 9 9 11 10 14 18 21 26 32 30 31 50 45 31 21 20 21 18 11 13 15 16 18 22 24 26 23
60 65 69 67 64 60 58 51 44 44 44 47 47 56 66 68 57 38 10 7 12 20 26 26 22 30 24 28 33 33 21 13 13 16 24 27 31 28 27 27 24 26 22 21 20 18 19 20 18 18 17 18 17 18
67 68 69 75 73 69 62 55 53 48 47 43 40 48 52 63 69 66 53 28 13 11 11 13 18 21 24 28 31 27 24 22 20 21 20 20 21 23 20 24 17 20 19 23 24 25 27 27 20 19 19 20 20 22
83 76 76 79 78 76 66 57 56 52 50 43 37 37 48 66 86 83 71 56 44 31 26 21 22 14 15 21 23 21 25 34 34 32 26 21 19 31 29 22 17 19 21 23 23 21 19 16 14 13 13 17 17 18
88 83 82 78 76 72 56 48 43 42 40 37 36 36 38 44 61 90 91 79 74 62 36 26 26 22 14 17 24 26 25 23 25 26 25 26 22 35 32 19 15 15 20 21 20 18 16 15 12 12 11 10 11 16
88 84 81 70 64 54 38 28 26 24 23 26 29 30 42 42 59 80 95 98 94 83 65 45 36 38 32 27 25 26 28 33 33 37 34 31 32 36 25 6 10 18 21 21 24 24 23 20 14 14 8 8 8 12
74 66 57 37 27 18 10 9 9 10 14 19 27 32 51 49 45 68 88 97 96 88 68 67 56 47 41 33 30 31 31 36 37 33 33 39 32 24 8 11 16 22 24 23 27 31 28 21 14 8 8 8 8 12
7 7 6 5 5 4 4 5 12 20 20 22 62 99 99 84 86 85 87 91 97 89 84 66 57 57 58 56 54 51 46 40 45 37 36 33 18 15 15 16 18 20 25 25 22 23 30 17 9 9 9 10 11 14
5 4 4 4 4 4 4 4 3 4 14 33 80 97 99 99 100 94 98 99 88 80 71 56 55 54 61 62 65 61 52 49 55 49 44 41 18 16 15 17 19 20 22 22 21 20 11 13 14 11 10 11 13 15
4 5 5 5 4 5 5 5 5 4 14 28 36 60 88 97 99 91 98 96 86 73 64 56 54 55 52 56 67 68 62 54 51 61 56 31 19 19 18 19 23 24 23 18 12 12 12 14 12 10 9 10 13 18
5 6 6 6 6 7 8 8 8 7 7 77 96 99 97 85 79 100 98 87 65 61 57 53 51 51 53 66 78 72 78 73 70 65 50 28 24 20 20 22 24 22 16 13 13 14 16 17 20 22 24 24 22 19
4 5 5 6 7 8 9 11 12 50 78 81 98 97 87 78 88 62 67 75 73 72 73 76 79 84 73 73 78 78 78 74 62 52 32 26 24 24 25 24 23 18 17 16 17 20 23 25 24 23 23 28 33 32
6 5 5 5 7 9 11 18 17 43 82 97 99 84 70 55 41 66 77 74 69 69 72 83 90 81 71 71 76 73 65 51 46 25 25 26 25 24 24 25 21 22 21 22 24 25 23 19 18 27 32 28 23 30
11 8 6 6 8 11 12 14 26 69 92 99 94 79 60 65 57 52 62 61 78 83 94 97 96 96 94 86 76 52 55 40 31 30 30 32 32 30 26 25 23 23 26 32 36 34 36 34 28 32 47 68 67 58
12 9 9 10 10 13 21 59 63 82 100 97 79 48 46 45 40 44 48 60 85 96 97 97 96 90 95 95 83 70 61 53 46 42 39 40 47 43 30 26 30 46 54 47 42 41 45 49 46 44 43 44 82 90
16 18 26 36 36 62 52 72 76 86 97 74 72 46 54 47 71 84 85 81 78 76 80 94 97 96 93 88 79 66 65 64 61 53 71 85 87 77 36 35 50 56 54 59 70 69 68 74 90 96 97 97 96 94
56 71 86 82 84 80 89 80 77 97 82 63 43 59 98 100 92 90 92 94 98 95 98 96 100 95 70 55 48 44 54 62 69 73 76 82 88 88 77 52 49 68 94 68 62 68 69 78 94 96 97 97 88 94
68 84 88 85 84 90 99 97 92 89 52 39 34 43 52 48 47 52 66 70 74 98 98 96 82 66 59 60 60 62 63 66 75 82 82 79 80 84 94 97 94 86 90 97 90 81 90 96 96 97 96 97 93 78
83 86 93 98 95 94 99 96 95 81 74 75 59 56 53 49 51 57 68 73 97 94 93 74 74 78 74 62 63 66 64 70 74 81 90 89 81 87 82 81 80 86 92 95 93 92 97 92 97 96 96 97 97 92
83 97 97 99 98 98 88 75 94 100 96 78 92 94 94 89 83 75 83 87 83 75 63 55 57 47 42 41 46 55 64 67 71 74 78 81 76 67 64 69 84 86 94 100 97 92 86 90 94 96 96 97 97 96
100 98 98 97 98 96 85 73 75 80 93 95 98 97 90 79 79 96 99 88 73 51 42 37 40 47 41 32 34 49 58 60 65 67 68 75 71 65 61 60 70 78 86 87 83 85 90 86 84 96 97 96 97 96
100 99 98 98 98 96 93 92 85 74 88 98 99 96 85 78 82 98 94 57 33 24 24 23 25 29 32 45 54 42 42 54 54 55 56 57 58 52 64 71 73 77 83 92 94 93 84 72 84 94 96 96 95 87
100 98 98 98 96 100 98 89 76 98 97 75 81 88 91 86 99 100 71 37 19 16 21 30 44 52 74 77 72 78 76 97 81 56 49 57 61 65 66 70 72 74 85 95 94 81 70 71 81 92 96 92 72 94
92 90 94 95 90 83 70 62 57 67 86 92 98 98 77 100 99 94 56 24 31 39 36 48 78 93 86 94 82 73 74 95 94 93 87 85 76 72 74 82 82 85 95 95 86 83 89 87 82 81 87 72 89 67
96 90 94 77 65 68 76 72 79 95 97 98 93 95 100 98 96 68 38 49 53 71 79 92 90 93 90 80 67 74 80 87 92 92 96 100 99 99 95 88 81 82 80 82 86 90 88 77 64 62 79 71 52 50
80 80 90 91 91 78 80 92 98 97 94 97 97 97 97 96 78 52 52 58 73 80 77 75 79 68 64 56 56 58 53 48 55 64 75 92 94 93 95 92 91 96 86 86 88 73 70 67 62 52 47 42 43 49
70 58 57 57 64 73 76 75 78 87 84 72 76 96 93 68 52 48 44 54 52 53 60 55 51 58 60 53 46 46 45 39 34 32 36 52 62 76 94 81 84 83 82 87 81 68 59 54 49 44 40 38 42 49
52 51 66 63 74 80 57 52 44 39 42 55 75 86 89 72 52 49 53 52 51 45 47 60 53 50 44 37 27 28 36 37 36 26 25 31 51 70 83 95 95 96 97 96 92 83 65 51 47 43 40 40 48 50
56 62 67 77 78 66 54 52 54 52 52 46 45 51 47 42 40 34 34 35 40 41 40 32 25 24 26 28 23 19 18 22 26 24 21 31 54 71 75 90 97 95 95 92 92 93 94 82 54 44 44 49 53 60
62 61 74 77 60 63 86 86 70 55 50 51 41 39 39 48 40 24 23 33 36 31 24 22 20 18 18 24 23 21 20 27 18 16 19 29 44 66 81 82 100 99 95 92 94 96 94 86 67 50 51 53 63 62
55 61 70 77 70 55 45 61 66 74 65 59 50 43 45 44 36 23 23 23 25 28 25 22 28 30 34 37 35 33 32 35 42 44 40 43 48 59 75 80 87 97 92 93 96 96 93 93 78 51 49 53 60 61

GFSWCAN_700_rhum_108.txt.gz
RH
36 51 54 53 52 56 58 55 48 48 53 56 65 62 46 16 8 20 30 32 29 19 10 8 8 10 12 14 17 18 20 17 17 18 25 41 34 32 22 17 18 21 25 48 68 72 58 15 12 12 9 10 12 13
58 61 60 57 59 62 63 61 54 47 46 46 44 50 63 63 49 17 8 17 24 29 31 28 24 18 11 11 14 15 22 24 20 19 22 24 19 24 26 31 23 28 15 30 23 11 8 10 11 13 15 16 17 17
61 60 59 60 61 65 64 61 59 53 44 44 43 43 41 46 60 60 53 31 12 9 14 23 26 27 30 26 16 16 18 20 20 25 30 31 27 24 27 23 22 26 21 21 18 11 13 16 17 18 18 18 19 16
76 64 70 72 68 65 64 64 62 57 52 48 47 49 43 40 40 44 56 57 55 50 38 20 21 26 25 28 24 31 34 39 39 33 25 30 31 29 29 23 21 22 20 21 18 16 21 21 22 21 22 20 15 15
75 60 70 74 73 73 71 70 71 64 59 55 53 50 47 40 36 37 41 50 57 50 46 45 41 35 24 19 17 20 29 37 34 34 33 29 33 41 31 29 15 16 17 22 20 21 22 19 22 23 24 19 19 17
76 69 69 76 76 77 75 77 78 70 61 53 49 45 41 38 36 35 38 47 55 58 60 53 42 43 40 17 17 15 17 28 26 32 35 37 38 44 37 25 10 12 18 23 22 25 27 24 22 19 16 15 14 14
98 91 76 76 80 80 79 75 74 73 60 49 45 40 35 34 34 46 54 57 58 62 74 66 55 45 36 34 36 31 28 26 28 27 23 25 23 42 40 16 11 15 22 27 32 32 26 24 22 21 17 14 13 10
98 98 84 82 81 77 77 74 67 56 46 37 32 28 23 24 24 38 65 59 60 70 77 69 53 48 45 45 47 41 33 30 31 35 34 33 34 37 27 17 19 20 23 21 21 34 32 29 28 29 26 16 11 9
99 100 100 94 90 82 74 67 52 30 21 17 13 13 15 18 20 42 65 87 85 81 91 75 42 52 53 52 49 50 53 55 54 47 42 46 34 27 20 22 17 15 18 25 28 26 33 34 33 32 25 13 9 10
91 76 57 51 42 37 25 23 18 9 5 10 18 24 20 30 48 70 76 78 86 80 80 65 49 58 60 68 72 72 67 57 55 53 47 42 28 24 24 18 17 16 18 19 20 23 28 28 33 32 12 12 12 10
30 10 8 8 6 6 5 4 4 4 4 4 6 16 21 29 43 70 83 91 86 80 70 57 55 63 72 71 76 78 69 57 56 66 58 55 32 25 21 23 22 20 21 23 22 21 19 17 13 13 12 10 10 11
5 5 4 4 4 4 4 5 5 5 6 7 14 14 13 17 30 41 93 98 88 79 69 65 63 61 61 64 67 77 73 66 55 67 64 49 31 30 30 26 23 23 24 20 13 12 12 12 14 16 15 13 13 16
5 5 5 5 5 6 6 7 7 10 10 14 19 77 46 38 37 98 98 87 70 68 68 70 69 74 67 69 78 73 76 70 68 66 52 37 37 34 30 29 28 24 17 13 13 14 15 18 21 24 25 25 26 27
5 5 5 5 6 8 8 9 9 10 18 59 67 54 33 38 69 47 51 61 69 78 86 89 77 93 92 95 92 94 90 82 74 59 41 39 32 30 29 29 26 19 15 16 16 18 22 26 24 21 22 28 28 26
8 7 6 5 6 8 11 10 11 14 45 62 95 63 48 43 24 30 61 85 89 90 87 87 84 84 94 96 96 97 87 67 60 34 32 35 47 45 39 34 26 20 18 19 22 26 29 31 33 36 40 57 62 39
14 11 10 10 9 8 9 12 16 78 82 93 68 37 38 40 38 35 47 71 77 89 96 96 99 98 95 95 92 77 76 59 50 48 43 47 50 56 61 58 48 28 22 22 30 36 36 37 38 40 52 61 71 90
16 12 14 16 14 14 13 54 88 82 81 75 20 9 14 21 32 46 66 72 76 80 71 87 98 86 94 96 92 81 61 52 48 56 61 60 69 68 69 75 82 88 42 25 36 41 39 44 54 63 67 66 63 92
20 17 21 29 33 44 58 81 93 94 87 33 23 11 23 21 29 43 81 77 80 77 80 94 99 97 94 86 65 50 50 52 44 33 42 64 74 78 76 75 79 88 53 42 51 59 73 74 67 68 62 66 84 95
33 34 48 72 90 98 99 98 100 95 31 20 17 34 48 34 28 38 61 74 84 96 100 97 97 92 76 56 51 48 50 62 67 67 73 79 76 77 71 70 82 87 83 75 76 61 50 51 53 68 86 88 92 92
49 66 77 89 98 98 100 100 89 86 52 54 43 43 41 22 21 28 33 52 86 97 95 80 69 65 57 50 66 67 58 64 90 93 80 71 70 69 70 70 64 67 76 73 73 79 75 73 77 84 96 95 92 95
57 56 68 91 100 98 97 93 92 83 81 79 70 76 73 58 51 47 45 49 65 70 52 41 39 36 47 44 44 49 62 59 54 43 39 50 58 62 60 60 62 65 67 69 73 77 84 96 97 97 96 95 97 96
63 72 85 100 99 98 96 86 90 82 91 84 92 96 88 78 77 96 90 89 93 80 65 58 52 46 44 45 53 48 42 54 54 46 38 42 44 48 55 56 60 63 70 71 68 72 70 67 88 95 96 96 96 96
82 89 100 98 99 98 93 90 100 90 90 71 70 77 69 75 85 78 92 98 68 46 34 28 29 51 73 64 42 28 32 38 52 46 34 33 37 38 45 48 48 48 47 46 56 64 67 72 87 95 96 96 97 98
96 98 98 99 97 97 95 98 85 75 69 62 58 56 58 52 57 79 84 68 58 44 31 29 48 51 42 38 34 45 46 44 67 65 51 48 46 52 69 61 54 54 53 54 57 64 68 71 82 97 96 95 96 96
100 97 98 95 97 98 99 93 75 73 65 52 64 76 57 56 89 100 93 58 42 30 46 48 44 52 57 56 53 44 58 96 96 94 74 94 84 80 76 87 80 72 73 76 76 83 87 82 87 96 96 96 97 96
96 91 87 84 89 93 93 81 78 69 66 69 73 61 60 78 94 96 79 46 37 42 40 48 82 96 78 72 85 82 92 98 91 73 69 69 57 51 65 80 88 82 92 83 74 76 80 85 92 96 96 97 95 94
98 91 76 59 56 62 67 72 70 85 80 80 66 61 76 100 90 54 33 31 38 50 68 68 63 85 90 88 95 92 90 85 85 65 58 54 42 38 39 44 58 83 97 96 92 85 86 92 97 96 96 95 93 91
76 73 78 62 68 62 66 66 81 90 81 79 87 86 84 84 88 80 83 82 76 79 86 68 55 84 82 78 74 66 60 66 69 67 56 49 45 41 34 28 31 58 96 100 93 96 97 95 95 95 95 90 76 66
59 43 46 54 63 83 89 75 66 55 45 59 76 72 62 42 35 42 45 46 49 60 63 56 55 56 49 40 40 42 47 59 58 47 38 31 27 41 38 31 29 47 81 99 98 93 94 95 95 95 94 79 62 72
40 53 82 68 69 67 49 47 46 40 44 52 58 65 60 48 42 38 34 34 41 52 57 53 44 47 49 44 30 28 28 28 26 27 27 25 22 23 36 34 27 32 67 92 97 97 96 95 95 95 93 90 89 94
50 57 71 70 62 34 28 33 55 56 64 72 80 97 84 56 39 34 33 29 35 42 38 33 33 32 32 34 36 34 24 21 21 20 20 20 19 20 21 22 29 32 50 84 92 95 96 95 95 95 95 95 94 91
56 56 51 55 45 29 44 47 51 58 63 80 78 84 95 88 53 30 22 31 37 36 29 28 30 27 26 27 27 26 19 15 17 18 18 21 30 32 32 31 44 48 50 64 89 92 93 96 95 95 95 95 94 93
65 70 79 83 66 51 47 74 76 70 64 63 54 44 43 46 54 50 42 38 33 26 22 25 28 28 37 42 44 43 41 29 28 33 35 36 41 44 36 38 43 52 61 67 78 91 93 96 96 95 95 95 95 91

GFSWCAN_700_rhum_111.txt.gz
RH
7 14 25 42 49 49 47 48 55 55 50 46 47 42 43 53 58 47 14 10 20 28 32 26 12 8 9 10 12 13 15 17 19 19 23 26 37 24 23 19 17 20 20 28 64 84 43 11 10 12 10 12 13 15
9 15 41 56 59 57 54 53 58 57 54 48 45 44 41 39 39 47 55 53 42 17 11 14 23 30 30 22 19 16 13 13 16 18 24 23 25 26 25 27 20 24 16 21 17 8 10 13 15 16 17 18 19 20
10 13 32 61 65 65 64 63 62 60 57 53 46 43 44 47 41 37 37 42 49 49 46 29 28 23 20 22 29 22 21 22 21 25 30 32 29 25 26 21 24 25 24 24 23 11 16 19 22 23 24 25 26 26
19 36 52 66 68 71 77 77 68 64 63 60 56 51 50 49 46 43 36 33 32 34 42 33 43 46 43 28 23 25 22 23 27 31 39 45 39 31 25 24 25 25 26 26 27 16 20 22 28 27 28 32 32 31
60 70 70 73 68 67 70 82 76 70 67 66 67 59 52 47 43 40 37 34 32 36 34 35 33 39 40 42 39 33 34 28 33 42 43 45 35 35 31 29 14 15 16 22 21 21 26 23 26 29 31 34 28 25
61 75 78 71 73 70 66 81 86 78 74 69 68 63 57 52 44 40 36 39 43 38 34 30 28 28 35 42 22 35 37 26 22 28 36 36 31 37 36 28 24 27 26 28 24 25 26 24 23 26 32 30 29 24
100 98 100 80 72 73 64 66 77 73 66 63 64 62 55 50 44 33 38 37 32 35 43 38 32 36 38 37 38 39 41 43 42 36 34 36 36 46 45 34 28 26 27 27 27 28 24 26 32 34 29 26 26 28
100 100 100 100 92 87 76 74 74 75 69 66 63 58 54 47 39 26 25 28 33 47 65 58 43 42 45 47 48 46 45 42 44 48 46 44 45 54 38 29 29 27 21 19 21 25 29 31 31 34 34 34 33 31
99 100 100 99 97 90 79 80 85 79 70 60 53 37 30 30 28 25 27 28 36 53 73 66 50 52 53 54 60 60 62 65 64 59 57 58 45 35 31 33 28 22 23 25 19 19 21 27 37 39 37 36 35 28
97 98 98 94 96 96 91 81 64 47 37 24 23 23 15 20 30 27 25 20 19 32 47 48 46 64 64 66 74 76 80 71 64 63 59 54 40 36 35 31 28 28 26 24 21 22 22 24 27 29 32 33 29 14
96 96 92 83 61 41 23 14 10 9 9 8 8 9 13 9 11 12 16 39 59 64 60 57 64 62 68 62 68 78 76 67 66 74 66 64 42 33 35 36 34 31 28 25 22 17 14 14 14 14 14 13 12 12
16 16 16 12 10 8 7 7 6 5 4 5 6 8 5 4 8 15 61 74 63 72 70 72 67 67 68 70 67 70 71 72 67 73 70 55 44 46 40 33 31 32 28 20 15 14 14 16 17 19 22 24 25 26
9 8 7 7 7 7 6 6 6 7 7 6 8 10 9 24 23 69 86 66 72 74 76 73 81 84 72 79 79 80 70 70 70 68 57 49 47 37 45 47 44 26 18 15 16 18 18 19 24 26 22 20 21 23
6 6 6 6 8 9 9 8 8 8 8 10 27 32 23 30 36 28 39 52 72 83 88 94 95 86 77 82 84 87 86 81 81 66 49 45 39 47 52 58 61 63 46 20 19 20 23 26 29 30 32 36 40 53
12 9 7 6 7 7 7 9 11 11 12 33 17 22 21 27 27 24 38 66 95 94 95 93 87 83 84 93 94 85 81 84 77 49 45 48 50 60 62 73 75 72 69 70 46 41 28 29 34 37 39 39 40 45
18 15 15 18 16 11 9 8 10 17 27 19 15 12 22 18 18 28 36 51 70 76 78 93 97 93 96 96 80 75 81 68 45 36 49 62 66 66 73 62 69 60 64 69 68 70 80 42 33 41 45 46 53 61
21 16 28 22 21 20 19 16 16 19 27 19 8 6 7 8 9 20 38 44 55 74 92 94 96 90 90 89 89 79 61 30 41 54 59 46 55 70 72 68 55 47 33 38 61 80 83 71 47 48 70 83 91 94
25 30 36 32 29 29 43 60 75 69 30 11 9 8 12 14 16 16 24 29 35 44 70 91 98 98 98 89 66 42 57 68 64 61 60 62 67 65 68 70 63 53 44 42 62 71 74 81 77 67 76 73 71 70
45 41 42 57 98 98 95 89 81 67 21 13 11 12 18 15 13 18 29 38 47 68 80 87 98 83 64 52 53 57 82 71 58 45 51 54 59 59 65 68 63 59 60 62 59 59 64 75 80 78 74 70 73 84
56 52 52 59 80 100 100 100 86 77 38 33 25 26 29 25 33 33 34 32 40 64 71 67 34 34 40 49 71 65 57 30 33 47 44 60 66 64 61 50 45 45 46 49 50 52 54 61 68 71 78 92 91 85
64 54 54 68 89 100 98 95 87 73 60 57 44 49 46 41 38 44 44 48 71 82 97 60 51 34 24 27 38 50 64 61 64 80 78 58 44 46 54 56 51 37 32 32 33 37 46 49 50 52 54 54 56 66
66 64 68 79 86 91 97 97 99 95 91 80 80 74 64 55 48 41 40 58 55 45 48 58 62 65 66 77 70 62 56 57 71 74 64 43 34 29 30 32 41 46 35 31 29 30 35 43 47 46 50 55 64 70
86 85 89 95 98 98 95 91 100 96 100 92 90 91 77 63 50 43 57 45 41 42 40 39 38 45 55 47 46 41 34 35 38 40 39 43 38 36 28 25 42 58 51 38 47 45 50 57 57 59 66 70 72 74
94 99 98 99 100 95 89 91 86 84 82 82 78 70 66 52 46 53 56 38 33 34 34 37 62 64 52 42 44 44 45 58 73 60 42 50 66 63 89 98 95 79 71 69 66 71 82 85 82 74 72 76 86 91
100 98 97 96 100 100 98 95 93 83 79 74 82 72 58 51 69 77 68 49 30 29 33 36 42 48 61 60 61 77 65 76 85 81 47 85 97 87 84 82 55 50 48 61 89 96 97 97 97 97 91 87 86 92
98 93 93 85 80 77 81 85 80 81 82 78 83 81 74 84 99 99 60 36 34 32 40 60 85 99 73 78 95 95 97 100 95 99 85 92 95 87 70 63 57 52 40 34 32 36 67 97 95 94 94 91 94 97
97 86 70 58 62 62 67 65 65 82 86 91 71 62 71 92 88 50 35 38 42 38 54 78 73 93 89 92 94 79 96 97 97 95 79 76 68 73 77 71 53 47 43 41 39 31 46 87 98 92 99 100 98 96
91 78 68 59 69 64 68 68 66 62 51 44 53 65 64 47 36 26 25 24 29 40 51 48 44 45 61 80 69 57 61 73 75 60 61 53 46 50 56 60 48 38 34 37 38 34 32 61 94 95 95 96 96 95
59 52 56 54 58 70 77 63 54 40 32 41 58 53 42 38 44 51 42 38 39 45 51 45 39 34 32 38 61 58 52 57 60 52 43 38 35 32 34 30 32 30 23 24 29 32 29 48 87 96 96 95 95 95
35 45 52 45 54 60 42 41 42 38 51 66 73 71 61 48 41 45 54 57 67 70 68 64 47 40 30 31 49 50 42 39 36 35 36 32 27 27 24 21 20 20 18 18 21 24 28 49 78 95 96 95 96 95
49 58 61 56 56 45 42 42 55 59 53 51 52 72 56 37 37 38 43 44 49 53 66 58 41 32 24 20 27 30 27 25 29 27 24 20 20 20 19 17 16 16 18 25 32 33 34 52 78 93 96 96 97 97
50 60 65 64 50 43 61 65 74 75 65 61 54 48 54 59 55 36 28 39 42 42 46 46 41 27 18 17 22 29 29 28 29 30 31 25 22 21 18 18 18 25 27 32 38 48 50 60 71 88 97 97 97 97
53 60 70 82 80 66 54 82 88 81 74 69 58 62 62 63 63 43 44 48 47 40 34 34 41 40 34 29 28 27 27 32 32 31 32 40 48 47 42 37 38 41 43 43 48 52 58 67 75 90 98 97 95 96

GFSWCAN_700_rhum_114.txt.gz
RH
11 9 7 8 14 21 35 46 47 47 52 50 47 47 44 42 43 45 51 52 43 22 12 14 24 24 26 23 19 14 17 15 15 16 16 18 24 23 20 18 17 19 21 26 61 76 40 12 14 17 18 19 21 24
11 10 8 8 11 23 27 45 56 52 59 56 52 46 44 43 45 43 38 37 41 48 47 44 36 16 15 22 26 23 23 18 16 17 20 20 19 22 20 21 19 23 17 16 17 12 12 15 17 19 21 23 26 27
11 10 8 9 12 15 34 52 59 62 65 63 55 52 48 49 49 46 44 40 34 32 33 35 39 32 29 25 38 26 24 24 27 26 27 29 31 35 33 27 24 21 23 25 24 15 19 21 24 24 26 28 27 29
12 11 10 11 24 46 49 56 62 68 67 71 63 58 56 55 53 48 43 40 37 34 33 32 35 35 33 39 45 41 25 27 29 31 32 31 31 33 39 40 36 32 31 31 32 25 28 25 26 31 33 35 37 35
13 14 15 24 42 58 65 60 63 68 72 70 71 67 64 62 58 52 47 43 38 36 35 33 29 30 30 28 35 42 48 42 36 33 32 32 31 37 39 38 28 30 36 38 34 32 33 24 24 23 24 32 38 37
20 23 24 46 65 76 77 71 64 66 71 74 68 65 60 62 60 55 48 43 41 37 34 30 30 29 27 34 40 30 34 42 41 36 33 38 40 45 44 38 34 35 40 36 33 32 29 24 26 29 31 34 36 37
20 31 44 54 67 73 81 77 76 71 67 68 67 62 57 56 55 52 45 41 40 34 32 35 31 31 37 36 35 36 37 41 45 47 46 47 44 57 53 37 37 38 34 29 26 29 26 26 23 24 30 36 39 38
31 38 78 88 100 100 100 84 84 82 77 70 67 68 58 55 55 50 36 35 34 33 36 40 39 36 38 42 48 47 46 45 45 48 48 49 52 57 50 42 40 38 32 28 28 28 25 22 20 24 31 35 36 35
47 66 89 97 93 99 100 85 90 85 81 71 67 69 62 55 46 35 31 28 29 35 39 37 34 34 39 49 62 63 65 68 67 61 61 61 48 41 40 43 40 36 37 36 32 28 24 21 20 22 28 34 35 36
82 84 100 100 100 100 97 99 96 93 80 73 63 42 31 33 31 30 31 26 18 20 23 26 28 48 49 55 70 72 78 74 70 67 64 58 43 39 41 43 42 40 33 32 29 25 20 16 15 14 16 18 22 27
98 98 98 98 98 97 94 93 93 92 75 38 22 17 17 15 15 14 15 23 39 44 50 54 63 63 64 59 63 70 71 66 70 74 71 66 46 46 46 42 38 34 23 18 18 18 17 18 18 20 21 22 23 23
97 97 96 96 97 97 88 71 49 27 17 15 11 14 12 10 8 13 28 36 36 49 61 73 70 70 73 71 69 68 68 68 71 75 68 54 51 46 49 53 58 62 60 37 24 26 27 26 26 27 27 25 23 24
91 85 69 42 28 18 15 11 8 6 6 7 7 9 9 22 20 19 32 56 68 77 78 76 81 85 80 80 76 67 77 75 73 70 57 49 48 50 57 60 68 68 69 69 67 56 35 29 34 33 33 34 35 39
51 37 35 40 36 17 8 6 6 6 7 8 11 17 12 30 26 28 31 41 63 78 83 86 92 90 86 76 70 76 85 82 82 74 40 51 51 58 67 76 77 68 57 54 58 52 56 66 74 71 40 40 40 40
17 7 7 7 6 6 7 8 9 8 9 14 15 14 15 20 23 29 47 54 78 85 93 97 90 74 67 77 71 69 69 78 84 42 57 54 60 64 63 75 79 66 59 49 46 41 32 44 66 74 77 73 49 48
17 18 19 14 11 9 8 7 8 10 14 14 13 10 11 11 20 32 40 62 73 65 65 72 73 73 79 85 80 68 72 58 35 35 43 37 39 52 72 79 79 63 47 42 36 34 32 33 47 66 79 79 75 71
24 33 25 22 20 19 19 18 17 15 19 19 10 7 7 7 8 16 28 51 64 86 87 92 100 80 79 88 89 83 48 26 42 49 42 34 61 82 72 52 52 49 42 39 40 48 53 55 57 59 57 57 71 84
35 38 33 32 29 27 26 32 37 33 19 13 12 11 12 13 14 18 22 30 37 40 42 58 87 97 87 62 35 30 42 43 43 48 59 62 76 67 70 57 42 42 40 37 51 54 50 48 52 57 62 62 64 68
49 49 46 44 40 40 48 58 65 61 22 18 14 14 18 20 20 27 29 33 32 34 49 99 100 73 38 24 29 27 31 44 53 42 35 38 69 64 55 37 28 24 31 34 51 56 48 38 35 35 38 45 49 55
58 60 58 66 74 68 84 93 64 68 38 32 28 30 35 31 34 35 37 38 38 59 89 95 57 37 42 27 34 40 46 53 60 52 33 25 30 29 34 44 54 52 48 40 36 44 49 47 42 35 33 33 39 46
73 82 94 99 96 98 94 90 82 71 63 55 45 53 52 43 40 38 38 40 56 68 63 44 37 36 37 36 37 50 55 61 69 78 70 65 61 59 59 51 49 51 36 26 28 28 28 33 33 40 37 34 36 47
78 84 89 94 97 99 87 71 78 87 100 87 75 76 75 68 63 56 48 61 66 48 37 36 35 34 33 35 38 34 35 47 49 43 42 45 50 45 44 51 50 41 27 33 34 63 85 63 55 51 48 65 74 77
95 95 97 98 99 97 80 71 72 64 76 74 68 79 76 70 59 55 61 55 44 32 35 38 36 33 38 36 41 48 53 57 56 58 65 61 43 38 27 25 28 34 47 54 98 95 80 71 72 94 98 94 92 90
99 99 99 98 98 93 81 77 70 70 74 73 77 77 79 64 70 75 76 53 42 44 40 34 35 41 42 39 36 37 40 46 55 63 82 79 67 62 82 73 53 82 98 97 85 69 62 43 34 39 49 78 91 92
100 99 98 98 86 83 81 80 72 70 65 55 68 87 76 74 87 88 92 68 41 41 38 37 36 36 49 47 38 57 49 55 80 97 72 100 100 90 68 71 93 90 79 74 85 74 64 60 43 40 34 37 73 93
98 96 95 80 70 76 82 78 64 54 60 78 83 70 60 75 96 100 54 30 30 30 28 28 34 47 57 60 81 84 77 99 96 97 68 93 96 96 92 89 79 63 62 81 80 58 53 56 49 37 37 35 54 91
97 90 77 64 66 81 84 71 61 80 87 77 51 51 74 100 98 54 34 28 32 35 42 45 48 53 58 58 59 80 82 72 92 96 79 72 77 80 92 92 84 57 50 53 52 53 45 38 29 26 31 32 52 94
87 72 62 57 74 71 72 72 72 69 61 55 63 77 79 66 49 34 42 51 46 47 54 57 61 63 61 42 37 39 37 41 41 48 46 44 38 40 50 54 51 47 44 39 35 27 28 29 24 22 26 34 54 96
60 56 65 71 75 87 80 71 64 51 37 42 51 50 43 46 52 57 45 45 50 49 43 41 37 38 43 42 42 40 29 25 25 23 27 32 32 31 39 36 31 33 34 33 27 22 21 20 21 27 32 41 57 94
61 62 71 67 69 71 50 44 41 36 42 49 57 63 65 59 45 42 46 45 43 40 36 37 34 35 36 36 36 43 51 42 22 21 23 36 37 34 31 28 23 20 20 20 21 18 17 18 27 35 44 50 64 96
50 50 48 52 55 42 34 34 44 48 50 55 58 78 72 65 46 33 41 41 42 40 40 33 29 32 37 35 38 42 42 34 32 21 22 33 35 28 24 23 20 18 16 16 16 15 15 19 34 35 48 53 81 97
41 40 40 43 32 27 42 42 47 55 56 61 56 49 43 50 44 30 40 46 72 72 62 70 71 47 47 50 39 38 41 45 40 23 21 28 28 26 26 24 29 31 25 19 15 16 26 35 44 43 53 60 88 96
32 34 39 48 44 39 38 71 66 53 45 45 43 45 45 51 52 53 71 92 97 97 94 94 98 97 84 65 55 47 48 48 43 28 24 30 31 29 27 26 27 38 45 45 43 42 47 62 59 56 63 66 86 96

GFSWCAN_700_rhum_120.txt.gz
RH
12 11 11 13 14 14 11 9 8 10 16 22 35 48 52 52 48 43 44 41 38 37 37 43 42 36 26 25 21 24 26 22 17 17 16 15 17 18 19 20 21 20 20 24 44 65 32 17 23 28 29 31 31 29
13 12 12 13 14 14 12 10 9 9 12 13 37 43 51 54 52 48 46 47 45 41 37 35 34 37 38 34 21 18 27 30 26 19 19 21 21 24 23 23 23 27 22 21 22 18 23 28 34 40 39 36 33 31
14 13 13 14 15 15 13 11 10 9 9 17 39 45 52 59 58 55 53 51 48 44 40 36 35 34 35 36 37 37 38 43 44 36 26 26 30 34 35 29 28 27 28 30 31 30 34 40 40 40 39 37 34 30
15 14 15 15 15 15 13 12 10 10 9 20 36 47 54 58 60 60 57 56 54 53 47 40 34 35 37 34 33 35 40 43 46 47 36 30 29 34 38 39 37 34 36 37 40 42 44 42 42 33 27 28 28 26
16 15 15 16 16 15 13 12 12 11 12 20 42 53 53 56 58 59 58 54 53 51 49 46 42 36 35 33 32 34 38 40 43 48 45 41 40 41 43 44 36 37 36 40 43 52 49 37 34 33 32 31 30 28
18 16 16 17 18 17 14 13 14 15 20 30 59 59 55 57 58 60 53 48 48 47 47 46 41 38 37 35 36 34 37 40 49 52 52 45 44 50 48 48 44 49 53 55 50 46 40 37 37 35 33 31 26 20
22 20 17 18 18 18 16 16 19 24 44 59 67 68 64 61 62 60 58 52 52 49 44 43 40 37 36 36 38 37 35 38 40 41 46 50 52 62 58 44 54 56 54 52 48 38 33 30 29 27 22 19 17 18
44 25 22 20 19 19 22 23 28 39 61 81 74 70 71 68 67 68 65 61 57 51 44 39 36 37 39 38 42 41 41 42 45 49 45 49 51 56 54 53 56 51 44 36 31 27 26 28 29 28 26 24 24 24
80 84 40 27 33 26 30 27 43 65 83 100 92 82 85 77 72 72 67 63 58 46 37 34 32 34 31 37 40 46 52 50 48 52 56 55 51 46 50 53 49 38 30 30 26 25 30 32 29 28 26 25 26 27
94 92 68 60 50 48 42 47 60 73 78 85 91 98 97 76 70 67 61 53 47 42 38 34 30 34 34 39 45 53 58 65 70 61 58 59 40 48 53 52 36 34 39 41 37 46 46 51 51 54 54 54 52 50
97 96 69 64 91 92 91 58 65 76 84 94 98 100 98 85 76 63 49 39 32 30 33 32 27 30 41 45 50 51 68 69 68 66 59 59 45 48 51 40 50 59 64 64 64 61 59 57 52 49 46 45 43 38
59 78 98 96 94 95 98 88 89 92 100 99 100 100 93 73 51 44 22 24 27 30 37 40 47 55 62 65 75 76 72 67 68 72 66 57 47 54 50 64 77 76 76 72 69 61 50 44 39 29 26 41 48 38
99 97 98 98 98 98 98 98 97 86 96 99 97 96 78 57 36 26 22 24 27 35 44 60 67 77 82 80 81 76 72 72 74 69 54 36 50 54 66 82 81 79 76 72 62 43 36 27 23 28 29 38 38 34
99 99 98 99 98 97 97 98 96 98 100 96 78 46 44 33 28 26 22 23 36 51 73 87 86 91 93 87 79 67 72 69 75 72 41 52 66 78 86 87 84 79 74 69 58 49 39 23 12 14 45 48 42 39
96 96 97 97 97 97 97 96 96 96 94 73 63 31 16 23 22 22 29 32 45 81 93 98 99 97 97 94 77 67 65 70 72 57 72 70 70 72 78 79 77 73 67 60 43 26 12 9 9 11 35 49 48 48
96 96 96 96 96 96 96 95 94 77 64 45 22 14 12 12 16 24 36 57 77 100 99 99 98 95 81 68 64 54 63 53 35 35 52 70 66 78 80 77 70 55 39 24 12 7 7 13 21 19 20 24 32 33
95 95 95 95 94 90 75 74 77 73 36 18 11 10 10 10 13 31 62 62 85 95 98 99 94 50 40 46 59 38 25 14 22 24 27 32 29 25 19 17 15 12 10 10 9 9 9 10 8 8 8 8 13 22
91 90 83 71 68 68 60 49 34 24 20 16 9 10 12 13 13 14 16 20 26 55 71 100 88 73 67 49 42 27 31 37 35 35 36 34 28 19 15 13 11 11 10 11 12 11 14 25 25 22 23 28 28 37
44 48 48 49 48 40 32 30 27 22 18 15 14 16 16 15 19 21 22 26 25 25 29 32 52 41 21 13 16 20 25 34 35 32 26 19 20 18 16 17 16 15 14 16 16 22 31 37 38 45 43 37 38 42
46 45 41 38 35 33 32 28 24 20 17 18 17 18 17 15 15 16 21 29 37 42 44 50 31 27 31 32 42 46 42 38 38 35 27 24 25 27 26 24 23 22 20 20 25 30 27 28 32 35 34 26 32 41
57 55 50 48 48 43 40 35 30 27 26 25 24 22 20 18 14 17 15 27 36 50 51 40 37 36 37 40 40 40 39 39 38 39 38 35 33 36 32 30 28 27 30 36 41 36 39 42 44 48 36 34 55 62
76 69 64 63 59 56 53 46 45 41 42 36 29 29 28 22 14 15 24 21 22 19 24 27 32 35 33 31 32 36 37 41 42 44 44 44 44 42 40 37 35 31 30 34 42 45 46 65 73 76 86 94 100 88
100 100 94 83 81 77 69 55 59 51 52 40 34 36 28 19 21 24 28 24 21 20 27 30 24 23 26 28 32 34 35 40 46 44 46 49 42 37 37 38 52 46 37 35 60 78 89 82 82 80 92 96 93 87
99 99 100 100 95 90 70 63 56 52 48 42 41 44 36 31 38 44 38 27 24 24 20 20 25 28 30 34 39 37 33 38 44 39 37 38 44 40 51 64 62 66 74 91 100 98 92 81 95 99 100 96 89 81
100 98 98 96 91 87 81 67 56 49 41 42 50 52 41 52 73 66 46 30 22 21 24 31 33 36 43 46 46 43 39 43 44 43 32 36 47 54 46 34 30 34 40 61 70 94 80 72 73 77 78 68 54 46
98 97 95 85 75 70 63 60 54 47 47 54 52 50 42 73 75 69 29 22 25 30 41 43 46 49 50 46 45 37 31 37 52 51 27 26 36 41 41 41 40 32 28 43 39 44 81 68 66 58 66 60 44 40
97 97 94 72 69 62 61 53 58 62 61 55 47 56 82 98 76 34 23 26 44 55 50 46 47 48 49 46 40 38 43 51 56 50 50 50 48 44 42 42 41 32 30 39 39 40 52 50 46 44 37 30 30 29
96 88 74 68 68 57 62 64 60 58 56 52 56 53 68 64 50 40 50 45 35 36 37 32 29 31 33 37 44 46 48 55 57 59 58 52 41 38 36 34 32 30 36 41 42 34 34 34 38 41 36 30 26 25
95 93 92 88 90 93 87 68 54 41 30 39 47 47 40 42 44 39 32 31 29 27 26 30 37 45 51 51 50 52 57 62 66 64 61 57 49 34 34 34 33 34 33 32 32 34 28 27 30 39 36 28 26 25
81 73 85 82 79 71 52 45 35 31 40 48 47 48 49 34 27 27 26 22 24 31 53 71 74 80 75 87 85 87 96 98 98 100 100 84 66 62 58 46 32 26 25 28 30 34 29 26 30 39 32 26 27 28
88 64 65 65 52 35 30 33 38 39 36 38 40 40 29 23 19 19 27 28 36 42 49 65 70 76 79 79 84 88 81 76 91 100 100 95 93 92 91 77 58 40 38 42 43 41 25 25 33 35 32 31 35 42
48 42 41 40 33 32 42 38 30 29 29 31 29 34 29 35 34 29 24 25 37 42 73 98 98 91 90 88 86 92 99 94 93 100 99 100 99 93 94 96 73 53 42 42 48 40 24 25 30 32 32 31 61 91
48 46 49 52 39 22 19 37 43 46 46 44 41 37 34 37 34 20 20 30 50 74 93 96 91 84 88 96 97 96 94 95 94 83 90 99 96 96 98 95 82 58 44 42 43 27 22 25 31 35 44 83 97 96

GFSWCAN_700_rhum_123.txt.gz
RH
15 15 13 13 13 14 15 15 12 10 8 8 11 14 38 45 48 50 46 44 44 43 41 40 38 40 39 37 30 25 21 24 23 18 18 17 18 20 20 19 21 21 23 27 44 57 30 19 26 32 34 39 38 35
16 15 14 13 13 14 16 16 14 11 10 8 9 9 31 43 52 53 52 52 50 46 44 41 38 38 38 39 35 25 20 26 30 23 20 22 22 24 27 25 25 26 23 21 23 22 24 26 30 34 41 43 39 31
32 16 15 14 14 15 17 18 16 13 10 9 8 8 24 43 52 56 58 57 55 54 50 42 40 39 38 37 38 37 38 39 37 41 42 32 26 28 34 33 30 27 27 29 30 31 33 34 42 45 44 39 30 29
75 19 17 15 14 16 17 18 17 14 11 10 10 10 20 41 52 56 58 60 59 55 52 48 44 39 40 39 40 38 39 41 44 46 46 46 37 32 33 36 38 38 39 36 38 39 41 45 48 40 34 34 35 34
100 35 19 18 16 16 17 18 18 15 12 11 11 12 18 48 54 55 56 55 53 51 50 47 46 44 42 39 37 36 36 38 40 46 47 47 43 41 38 39 36 37 39 44 47 49 54 47 41 37 35 31 27 25
100 99 25 31 36 17 18 18 18 17 14 13 13 17 25 53 59 57 55 53 50 49 48 45 39 36 35 38 39 38 38 39 41 47 52 54 54 50 43 41 42 47 46 50 48 50 47 37 34 32 29 26 22 20
98 99 69 25 20 18 20 20 19 19 19 20 16 18 26 62 65 62 60 56 61 61 58 52 45 36 34 36 37 38 40 39 37 42 44 45 48 55 50 42 45 52 55 59 51 41 33 30 29 28 25 24 22 24
97 98 85 29 24 23 22 22 21 22 30 38 28 33 32 52 65 66 70 65 63 64 64 54 44 40 38 34 38 44 47 46 45 48 42 47 49 55 47 47 48 56 56 46 36 32 32 38 41 43 44 42 45 46
97 98 97 42 33 40 30 27 28 31 60 49 64 63 46 48 51 64 71 68 65 63 61 55 51 44 41 35 38 43 45 45 44 43 48 50 47 46 50 60 65 59 46 36 35 35 46 54 55 56 55 52 48 45
96 97 97 78 57 58 94 66 48 51 43 63 84 95 93 48 47 71 72 66 64 57 54 52 51 48 49 43 46 50 52 50 57 55 58 61 47 53 60 68 63 46 36 35 41 53 61 62 56 53 51 47 36 26
97 96 96 96 92 95 92 96 72 94 82 99 98 97 99 70 80 94 83 64 51 50 48 45 45 48 52 53 56 59 56 58 67 64 53 58 42 44 64 74 60 45 43 50 59 64 62 58 54 52 50 48 46 41
97 96 97 96 96 96 95 94 97 97 87 89 97 96 97 99 96 84 50 48 51 40 43 42 42 46 50 54 58 62 61 62 62 68 63 56 49 62 59 56 57 62 66 70 72 70 66 63 61 57 52 46 37 22
97 97 96 98 98 97 94 96 96 97 96 92 98 97 96 90 84 69 42 39 37 31 34 40 51 65 71 76 86 78 78 78 79 74 60 57 58 58 64 69 74 73 74 75 76 75 72 69 67 62 57 39 22 9
98 97 97 96 98 96 98 96 96 95 97 97 97 96 92 86 71 53 48 43 34 39 45 55 72 78 87 89 87 76 78 72 73 69 52 43 54 66 68 73 75 77 79 79 79 79 77 74 68 64 61 35 9 5
98 95 98 96 96 98 98 97 97 97 98 97 96 94 94 69 64 31 33 40 36 33 49 77 96 92 98 95 88 84 72 69 64 54 37 52 58 64 68 71 75 78 83 84 84 79 73 69 64 59 25 6 6 6
97 95 95 98 98 97 97 97 96 96 98 96 96 94 81 63 66 56 46 32 32 42 84 100 99 98 98 96 90 73 70 48 35 34 35 41 64 75 77 78 74 75 77 73 68 58 47 32 17 8 7 7 8 12
96 96 96 96 96 96 96 95 95 96 95 94 92 69 47 58 54 42 53 85 93 96 100 98 96 91 85 74 75 63 49 30 22 21 31 53 79 78 71 54 40 23 17 14 14 13 12 11 10 9 8 7 12 18
96 96 96 97 97 96 96 96 96 95 93 69 53 55 60 41 24 14 13 13 12 16 22 34 43 52 62 46 38 33 37 41 40 38 34 28 22 19 19 18 18 18 16 16 17 15 15 13 12 11 12 13 19 24
96 96 96 96 95 94 94 95 93 84 84 77 48 28 33 31 31 26 19 17 18 21 24 31 50 29 13 13 15 21 28 28 24 22 20 20 22 25 26 25 24 24 24 24 21 18 16 17 20 24 34 38 41 36
95 97 96 96 96 95 90 83 78 62 52 35 20 18 17 18 16 15 15 16 16 18 23 24 16 17 22 21 23 22 21 21 24 23 21 23 27 35 33 31 31 32 30 23 21 25 24 22 25 31 38 40 55 48
86 88 63 48 42 44 32 32 27 25 22 20 22 23 21 19 20 23 24 23 19 14 10 12 12 13 14 14 16 19 19 26 35 47 47 42 38 44 41 39 35 34 34 32 30 25 27 36 46 45 49 70 95 91
62 59 49 47 46 43 40 38 37 36 32 30 27 28 28 28 26 25 24 18 13 10 13 19 18 18 16 15 17 21 24 29 33 35 37 40 39 34 32 32 29 25 28 31 27 33 59 66 88 76 90 91 85 93
72 70 66 62 60 57 54 50 47 46 46 37 34 40 39 34 30 27 24 14 11 9 15 15 16 18 19 18 21 24 26 27 26 25 25 24 23 24 25 27 36 46 38 30 49 74 73 50 50 73 85 89 92 94
93 95 96 94 87 80 65 58 51 47 47 44 48 48 40 38 35 31 20 13 11 12 15 19 22 23 24 27 29 28 25 26 33 32 30 32 42 42 42 47 45 45 48 66 75 71 52 37 36 46 54 70 76 75
100 97 96 88 79 74 70 59 52 51 53 53 57 52 46 44 43 33 21 14 14 17 17 21 30 39 40 36 35 32 28 31 44 54 39 41 47 44 42 45 46 39 39 34 31 34 32 34 33 31 39 40 63 65
97 96 85 71 65 62 55 52 44 47 57 68 73 60 41 49 54 40 21 20 21 18 26 35 36 37 37 30 30 32 31 32 39 39 30 31 40 46 45 44 40 30 30 34 36 37 37 36 36 33 35 34 48 53
97 96 83 66 72 61 59 53 52 58 58 59 59 54 66 79 60 28 23 19 24 30 29 30 36 35 30 27 30 34 44 48 49 48 45 43 41 41 44 46 46 42 43 41 42 43 40 38 33 35 30 26 37 41
97 93 81 64 62 60 65 60 60 66 63 65 68 69 73 64 44 28 29 28 30 29 22 22 21 21 26 38 42 52 60 72 75 78 79 71 67 71 87 89 86 74 67 59 60 51 36 36 34 34 35 26 25 33
95 95 96 95 95 91 83 83 77 76 68 76 89 79 60 46 29 31 27 21 17 17 13 14 22 28 36 38 45 52 68 81 90 87 84 82 81 78 93 91 84 85 91 88 74 66 40 31 30 33 30 28 27 28
92 89 76 62 87 96 85 91 88 82 72 70 72 57 36 22 15 16 13 12 14 16 22 29 32 33 34 43 44 52 69 83 84 92 94 85 79 85 93 95 96 97 98 96 88 79 61 39 31 31 28 27 30 29
69 75 72 95 95 82 60 59 72 67 56 44 36 43 29 19 15 13 15 17 23 26 28 31 34 38 47 61 72 77 64 79 95 94 97 97 93 82 91 95 95 100 98 96 99 94 68 46 41 40 36 34 32 30
73 79 82 87 74 50 54 45 43 42 31 25 18 14 20 33 36 18 20 25 25 25 30 46 53 61 82 92 94 100 94 85 78 80 79 90 94 97 100 97 98 100 99 98 93 82 68 53 44 41 37 29 29 36
68 59 63 57 39 34 34 42 37 23 16 14 18 29 34 35 28 21 18 22 28 39 47 65 69 78 91 96 90 96 98 91 84 87 93 100 100 99 93 89 92 94 93 93 86 74 56 48 46 40 32 32 38 35

GFSWCAN_700_rhum_126.txt.gz
RH
91 26 16 18 21 17 14 13 14 14 12 10 9 8 9 11 26 36 45 47 45 46 46 40 42 39 40 39 37 30 24 22 26 22 17 17 17 18 20 18 18 22 24 29 37 41 36 22 24 30 32 33 36 42
100 96 31 17 19 19 16 15 14 15 14 11 10 8 8 9 26 37 45 49 51 50 49 48 46 42 37 38 41 36 24 24 28 28 20 20 21 22 25 28 28 27 25 25 25 27 22 21 23 31 36 41 43 38
100 100 84 24 17 19 18 17 15 16 15 13 11 10 9 8 16 28 45 53 54 53 52 51 46 47 42 39 38 36 36 38 38 36 37 39 35 29 25 26 30 29 27 28 28 28 30 32 34 35 43 42 36 35
96 98 98 42 20 19 19 18 17 17 17 15 13 11 10 9 12 23 45 51 54 54 53 50 48 43 43 46 40 39 41 40 40 41 45 46 47 40 34 30 30 31 32 34 37 36 36 39 43 44 42 38 36 32
94 95 97 98 48 21 20 20 19 19 18 17 14 12 11 10 11 18 44 51 52 50 49 47 46 43 41 42 43 42 40 39 40 42 44 48 44 45 44 42 37 35 34 36 38 41 46 48 46 41 35 32 30 26
98 94 93 98 98 38 23 22 21 21 22 20 17 13 12 12 15 18 44 52 51 49 47 48 43 41 40 38 36 38 41 41 41 44 44 44 47 51 46 42 38 38 41 40 39 44 49 52 40 33 30 29 26 23
100 94 95 97 98 91 29 25 25 25 27 23 19 16 15 18 20 33 52 56 56 54 56 52 45 36 37 37 36 36 38 41 47 51 50 47 45 51 46 37 38 42 45 50 54 55 52 41 33 31 31 29 30 38
94 96 92 97 97 98 67 47 28 39 36 29 24 25 23 28 44 48 59 62 61 63 65 56 41 36 40 42 42 41 44 48 46 48 45 46 50 52 48 36 37 40 46 54 57 48 38 33 34 37 38 42 54 52
94 88 90 98 98 98 96 64 79 56 46 42 49 50 42 46 56 60 58 57 55 62 67 57 46 46 41 45 47 44 50 54 52 46 45 49 46 45 44 41 44 52 59 56 45 39 39 42 46 52 56 57 54 49
81 98 100 100 98 98 96 86 98 74 92 79 100 84 79 56 61 60 51 43 44 52 58 50 42 46 46 50 53 55 54 51 58 51 52 51 34 39 44 47 51 57 61 50 45 47 48 51 55 58 58 56 54 53
65 98 100 99 98 97 96 96 97 97 96 100 100 99 100 95 84 89 70 63 58 52 42 36 37 46 53 59 62 65 61 56 62 58 50 59 40 36 42 53 64 64 55 49 49 51 53 51 53 59 62 60 59 59
69 100 99 99 98 97 96 98 94 97 89 87 97 92 92 96 98 93 82 67 56 48 46 43 43 46 47 53 62 66 63 59 60 68 63 53 41 41 49 64 67 63 60 57 54 54 56 64 67 65 65 64 65 66
98 100 99 98 97 97 97 98 94 98 98 94 96 93 97 94 95 94 73 54 54 49 45 44 45 49 54 61 68 65 72 78 78 75 61 52 49 51 59 66 68 68 69 67 65 64 63 62 66 70 72 75 73 74
100 98 97 97 96 97 95 98 96 97 99 98 97 97 94 94 92 85 74 60 51 48 43 40 41 52 64 73 84 81 85 82 79 79 58 48 54 60 56 54 54 56 64 69 70 64 60 56 62 71 77 77 76 62
98 98 97 97 96 98 98 97 97 95 98 98 96 96 95 87 86 82 73 62 49 42 39 40 56 69 79 91 86 85 79 75 67 58 48 50 53 52 55 56 58 61 62 62 63 66 69 69 73 68 58 42 20 12
98 98 97 96 97 98 97 97 97 97 97 97 96 94 89 92 93 92 53 39 39 46 49 57 81 93 97 91 94 85 83 59 51 44 43 36 47 53 58 54 51 51 54 60 70 72 75 64 35 20 15 15 15 14
98 97 98 98 97 97 96 98 97 97 97 96 95 93 96 95 94 93 83 74 65 49 71 91 93 90 94 95 98 88 77 66 51 42 36 39 54 57 50 50 56 61 69 73 64 34 19 20 19 19 19 17 16 15
98 97 97 97 96 97 97 97 96 96 95 94 96 95 96 95 86 59 54 65 68 84 98 97 89 88 86 71 63 56 47 40 36 34 35 42 52 55 51 41 32 23 20 20 20 22 23 22 23 22 21 20 19 19
96 96 97 96 96 95 96 97 96 95 95 94 95 96 96 91 68 53 47 43 39 33 27 25 22 21 20 20 18 18 16 15 13 11 11 12 12 14 12 13 15 18 23 25 26 27 28 28 28 27 28 27 29 31
96 96 96 97 96 96 96 96 96 94 95 95 86 65 72 83 76 60 43 28 18 15 13 12 10 8 6 5 5 5 6 9 10 10 8 9 14 18 17 20 22 24 25 26 28 28 30 28 24 34 35 45 46 55
96 96 96 96 96 97 94 96 95 93 94 92 82 60 40 36 28 17 15 14 13 11 10 8 7 7 6 6 6 6 9 12 13 16 16 14 14 15 16 17 19 21 22 23 25 26 28 28 29 35 57 54 37 42
95 96 95 96 92 91 85 80 62 60 51 53 46 36 30 24 23 24 26 25 22 17 13 11 10 8 7 7 7 8 9 13 16 17 17 18 18 20 22 25 27 26 27 28 26 29 28 30 34 30 32 43 41 34
91 86 76 71 72 56 57 47 40 36 36 32 31 30 32 33 35 35 31 24 18 14 14 13 11 10 9 8 9 10 14 16 19 24 28 26 31 32 29 30 34 37 35 30 35 39 37 36 33 32 33 40 38 34
74 79 77 71 62 60 56 52 46 43 42 41 42 43 43 43 38 34 26 16 13 16 15 14 14 13 11 12 14 17 19 23 28 25 24 29 31 29 31 32 31 29 28 34 37 35 36 33 34 37 37 36 34 34
85 80 78 74 69 62 61 57 55 51 45 44 47 47 45 46 45 37 24 20 19 17 17 18 17 15 15 13 13 17 19 22 26 29 24 25 37 45 39 30 28 23 31 39 38 41 40 43 44 44 41 41 38 37
92 82 73 66 59 56 52 52 48 48 49 62 68 59 46 52 54 44 30 28 27 25 23 18 16 19 16 13 16 16 20 23 28 32 32 38 44 60 66 57 49 36 67 83 81 74 65 59 58 52 48 48 44 37
96 77 58 52 51 48 51 50 50 55 56 60 55 55 63 68 58 37 34 40 39 31 24 21 23 24 19 16 15 17 21 29 32 34 36 38 44 72 92 80 66 76 87 99 97 93 94 90 82 68 54 45 35 33
94 85 77 65 62 62 71 69 67 69 70 66 62 64 68 63 50 47 58 55 33 22 20 19 16 13 15 18 20 28 32 33 34 37 38 44 55 77 81 85 100 97 100 100 94 100 100 93 89 85 70 49 29 29
94 94 96 89 91 96 92 85 74 72 70 72 74 72 75 74 77 60 36 24 18 18 16 13 14 20 22 23 30 30 32 36 40 44 47 47 48 57 80 74 80 94 100 97 96 100 99 99 100 96 84 63 31 25
77 77 85 88 95 92 75 71 66 76 92 93 94 95 85 60 35 31 22 12 12 13 23 32 31 28 29 33 28 29 40 58 76 78 68 65 69 64 77 81 84 96 100 99 99 97 100 100 96 96 96 81 48 30
40 52 61 72 83 61 62 82 78 76 83 74 68 64 50 36 23 12 8 9 17 29 30 27 24 23 30 36 49 51 54 71 85 91 89 92 91 73 70 74 90 100 99 98 98 100 100 98 97 92 93 83 52 41
56 53 51 50 47 59 79 86 66 46 39 37 30 29 25 22 16 10 7 21 26 31 37 40 36 36 51 65 73 78 80 83 84 86 78 91 100 88 80 82 97 100 100 100 100 100 99 100 98 95 84 60 46 44
75 74 78 74 70 64 49 52 52 40 29 24 19 15 15 18 22 17 22 27 33 45 44 44 53 72 75 70 70 76 85 93 94 94 96 96 99 99 98 95 98 96 88 95 98 97 97 97 94 83 58 46 44 36

GFSWCAN_700_rhum_129.txt.gz
RH
100 100 94 27 16 18 24 21 14 13 13 13 12 10 9 10 10 15 33 42 46 46 46 43 42 43 40 40 40 34 29 23 24 28 23 24 20 19 20 21 19 22 28 36 60 59 44 22 18 18 26 26 31 34
98 100 99 97 30 17 19 22 17 14 14 15 14 12 10 9 10 12 23 34 45 49 48 50 49 49 43 39 40 42 31 25 28 30 23 20 21 21 27 33 27 27 24 30 23 40 24 20 21 21 22 29 35 41
100 99 97 99 98 41 18 19 19 16 15 16 16 15 12 10 10 9 18 31 43 48 50 49 50 48 48 45 40 41 40 33 32 36 35 35 38 34 27 25 24 28 28 26 26 27 26 26 26 27 32 35 42 39
99 99 98 97 98 98 75 23 20 18 15 16 18 17 15 12 11 10 13 24 42 48 49 46 48 48 44 43 46 43 39 39 42 44 44 44 42 41 39 34 31 29 30 30 31 33 34 33 32 35 40 44 41 34
100 97 98 98 98 98 99 70 23 20 17 17 19 19 18 15 13 12 13 22 43 49 49 45 43 42 42 41 40 42 44 43 43 45 47 48 46 50 47 43 36 32 30 31 36 35 40 38 41 44 48 42 33 30
100 98 95 99 98 99 100 97 47 24 20 19 21 22 20 18 17 16 20 24 32 50 54 47 41 39 38 36 37 37 36 37 41 46 47 52 52 59 50 43 33 34 33 32 32 38 44 47 49 51 45 33 30 30
90 98 96 100 98 98 98 98 96 47 24 23 26 25 24 23 22 27 38 42 46 55 55 54 45 35 34 36 35 36 37 38 40 40 41 47 55 66 60 43 36 37 37 37 40 44 47 49 54 47 34 33 33 32
37 73 76 91 91 98 98 100 97 96 41 29 29 32 35 35 34 33 43 53 68 72 70 69 53 40 36 35 38 38 42 44 43 45 40 42 48 58 56 37 35 36 40 43 48 54 54 54 48 37 34 33 35 39
11 26 58 81 81 96 98 98 98 96 89 48 38 40 46 45 56 46 62 77 70 71 80 68 57 48 38 36 42 44 46 46 51 46 45 50 49 46 38 33 34 38 40 44 50 58 59 46 38 38 41 46 52 56
10 10 36 71 86 97 99 98 98 97 98 90 85 84 70 60 72 70 88 82 74 59 69 59 50 50 41 40 45 54 57 53 56 51 48 52 41 33 32 35 39 43 48 58 62 55 45 42 44 48 52 57 55 53
15 9 22 60 72 99 100 100 98 98 97 97 91 97 78 91 89 85 95 76 62 51 43 34 29 32 38 49 55 61 63 59 60 61 56 62 45 36 37 38 45 54 60 65 62 55 54 55 56 57 56 54 51 55
21 17 20 57 71 92 100 100 99 97 97 97 88 95 97 96 96 92 84 75 63 55 49 40 36 38 52 57 64 65 64 62 59 67 65 54 42 41 42 45 51 63 68 66 60 57 60 61 60 56 55 56 56 54
32 30 34 65 75 93 100 100 99 98 97 98 97 98 97 96 97 96 81 70 66 58 50 44 42 52 57 58 64 59 58 61 64 70 62 49 43 43 44 52 62 65 65 64 65 65 64 64 64 65 65 66 59 56
34 39 44 71 77 100 99 98 98 95 100 97 97 97 94 92 85 79 71 59 58 56 55 54 60 72 66 65 71 67 77 77 83 81 60 54 52 53 56 65 78 78 77 74 68 63 57 51 46 54 63 67 72 72
29 40 58 67 72 100 98 98 97 98 98 97 96 96 90 78 74 61 59 61 66 59 78 93 82 80 70 76 70 78 79 76 74 66 59 50 51 59 65 71 72 69 60 51 50 50 50 53 57 56 66 73 73 54
48 66 73 76 89 99 98 98 98 97 97 97 96 93 84 75 68 64 62 67 85 89 95 96 95 89 90 81 86 84 87 74 62 52 48 42 37 55 63 64 61 58 55 52 47 44 45 53 63 63 57 39 21 22
70 87 94 99 99 98 97 98 97 97 98 96 95 89 85 79 71 76 82 79 83 95 95 95 94 93 96 95 96 88 84 75 77 67 60 54 55 56 57 58 55 51 53 55 59 66 62 46 27 17 17 21 26 24
98 99 100 98 97 97 98 97 97 97 96 91 89 89 88 90 86 86 90 93 93 96 96 95 93 95 92 85 74 66 62 51 39 38 34 32 39 45 40 32 38 40 31 17 13 12 12 13 16 19 21 19 22 23
98 98 98 98 98 97 97 97 97 95 93 91 91 94 95 95 96 97 96 96 95 95 96 97 94 82 78 63 29 18 12 7 6 5 5 5 5 5 6 7 8 9 9 9 10 11 12 15 18 18 19 22 24 27
97 97 98 97 97 97 96 96 96 95 97 96 96 96 95 95 96 96 95 93 76 74 74 60 43 37 22 10 6 6 5 5 6 5 5 4 5 6 6 7 7 9 11 13 15 17 18 18 19 22 23 25 27 26
97 97 97 97 97 96 95 96 95 94 95 95 96 96 96 95 94 94 88 86 85 65 34 17 10 8 8 8 7 7 7 6 6 6 7 8 9 11 11 12 14 17 20 24 23 20 22 24 26 29 30 32 35 42
96 95 96 96 96 95 95 96 95 96 94 94 95 95 95 88 72 59 47 32 23 17 14 13 11 11 11 9 9 9 7 7 8 8 8 12 14 15 17 18 20 23 25 23 22 27 29 28 27 28 31 31 33 34
94 95 96 96 96 95 97 95 95 95 95 96 96 92 76 61 43 31 26 20 20 20 18 19 16 15 13 11 11 10 8 9 9 11 14 16 19 20 21 22 22 25 31 37 44 48 43 38 37 39 39 38 36 34
95 94 95 94 95 95 95 95 94 94 94 94 88 73 58 42 34 32 31 23 14 20 20 18 18 17 15 13 13 12 8 9 11 16 19 20 23 23 22 24 30 34 38 48 60 65 64 64 68 71 73 70 64 57
87 85 86 94 94 92 90 78 65 54 46 52 46 48 42 41 41 39 34 20 15 21 23 23 19 17 17 18 17 12 8 11 14 18 12 16 19 21 26 30 33 36 46 67 73 68 60 63 69 72 79 86 89 91
64 66 62 58 57 55 52 51 49 48 49 49 49 50 48 48 45 38 21 14 22 26 26 35 36 31 29 26 17 11 10 13 17 20 14 15 23 31 32 33 35 36 63 86 89 80 71 76 79 74 71 78 89 95
75 66 63 53 48 48 46 47 48 51 51 52 47 48 54 59 51 33 20 25 36 42 46 50 52 44 31 19 13 14 15 16 22 23 18 20 28 32 40 53 49 48 58 74 98 92 87 81 82 84 83 84 86 92
83 70 68 65 62 60 65 63 63 68 70 65 61 60 61 53 43 36 40 49 52 55 52 41 38 29 15 11 13 22 21 26 24 24 26 26 24 30 48 65 62 66 73 69 79 84 92 93 87 87 81 84 89 88
91 80 79 84 75 70 71 78 79 77 75 76 77 76 74 67 48 42 34 35 37 35 30 27 16 10 12 25 27 25 27 29 30 28 26 24 26 34 64 72 70 78 86 76 69 82 98 96 96 96 94 91 94 90
99 98 96 94 78 66 60 71 70 68 66 66 63 59 52 42 36 39 36 29 24 21 22 15 10 18 30 27 24 24 31 34 41 53 56 57 62 71 81 84 86 91 88 81 79 86 89 98 96 96 96 100 100 98
60 66 67 57 54 58 70 69 67 63 56 51 55 50 36 42 28 23 18 13 12 14 13 14 28 31 31 34 40 37 41 63 74 75 78 84 91 90 92 98 100 96 97 90 89 99 95 89 93 96 97 96 96 98
80 70 60 51 40 42 46 47 50 51 57 66 59 52 41 40 33 17 10 12 13 22 31 36 29 28 36 47 64 82 83 75 76 83 83 90 97 100 100 100 98 99 92 84 95 100 97 86 93 98 95 94 99 100
75 73 75 76 69 61 61 78 76 67 57 49 41 38 32 26 21 15 16 26 32 37 33 27 31 38 53 76 82 76 73 78 77 78 85 88 89 93 98 98 99 98 89 82 89 98 95 77 85 86 91 89 70 52

GFSWCAN_700_rhum_132.txt.gz
RH
100 99 100 100 68 20 19 24 28 27 16 13 14 13 11 10 9 10 17 32 42 47 49 49 44 48 45 42 42 39 35 28 24 28 30 38 22 29 21 30 20 20 21 26 41 60 34 22 20 16 18 22 26 28
99 99 98 99 99 80 21 19 22 26 23 15 15 14 14 11 10 10 10 21 31 39 45 49 52 52 52 46 42 42 40 27 27 31 28 23 22 22 26 38 30 29 29 39 28 30 30 25 22 20 18 20 21 29
99 100 100 99 100 99 98 35 19 21 25 20 15 15 14 14 12 10 10 12 20 26 39 46 51 50 49 49 48 44 43 41 32 28 34 36 34 36 35 31 28 25 28 31 28 25 24 24 25 25 24 23 30 35
98 99 99 100 98 97 97 99 60 19 23 22 18 16 16 16 14 12 11 11 14 21 30 34 47 48 48 45 42 44 46 43 42 38 41 43 43 40 39 38 38 36 32 30 29 28 28 31 32 32 32 33 38 44
98 99 99 98 99 100 98 98 98 36 22 24 22 19 18 18 16 15 12 11 13 26 38 39 44 42 44 44 44 42 41 43 45 45 44 44 44 45 42 40 34 35 35 36 33 32 32 34 38 40 41 47 49 40
94 97 98 99 99 98 99 94 96 98 93 34 26 23 22 21 20 18 16 14 13 18 28 46 37 40 39 40 40 40 40 40 39 41 43 46 45 53 49 41 36 36 33 31 33 36 36 38 42 43 45 47 48 35
67 92 97 98 99 99 100 99 97 98 98 95 60 28 26 25 24 26 26 24 26 30 44 56 51 40 39 36 37 38 37 39 41 42 41 42 44 57 50 38 35 39 41 39 37 37 38 40 45 49 51 51 41 33
22 40 62 95 98 98 96 99 97 98 98 97 87 63 35 32 31 30 31 31 37 52 60 69 51 37 39 38 36 37 38 40 41 45 41 43 46 50 43 33 34 36 37 39 43 45 46 50 54 56 56 46 37 38
22 18 19 35 90 96 97 98 97 98 98 98 97 93 71 51 36 37 46 48 60 67 91 77 56 44 37 36 41 42 43 46 48 45 44 52 48 42 37 35 32 34 34 36 40 45 51 60 64 64 52 46 47 46
21 27 18 14 21 55 92 97 99 98 98 98 98 94 99 71 67 56 56 53 71 75 90 64 56 56 42 44 47 47 52 50 53 51 50 57 43 38 40 41 40 37 41 46 47 54 60 64 62 50 44 46 50 54
24 31 23 17 11 18 65 91 98 99 98 98 96 99 96 96 95 95 87 78 74 68 55 45 39 37 37 40 46 53 59 58 60 66 58 65 44 38 42 43 43 46 54 58 62 66 63 57 53 53 56 58 59 58
38 44 41 26 15 11 41 82 99 99 98 97 94 98 100 98 97 95 90 90 77 59 49 42 41 37 39 40 48 64 60 62 62 74 65 54 42 40 40 42 46 53 61 68 74 73 67 62 60 60 62 62 61 52
31 42 41 33 22 12 37 83 99 98 99 100 98 98 97 96 97 95 85 75 73 59 52 49 49 52 52 58 79 78 68 69 71 68 59 46 42 42 44 47 50 60 71 77 75 71 68 66 66 65 54 36 31 32
25 25 27 29 24 14 47 100 98 98 99 99 97 97 95 94 76 68 62 71 64 56 53 57 57 59 64 80 92 94 91 74 79 77 53 49 52 52 51 53 63 73 75 72 69 70 70 63 55 51 44 41 39 38
41 38 35 28 20 13 36 100 98 98 98 98 96 96 90 78 67 65 67 70 64 61 60 58 60 66 85 96 95 96 95 78 73 63 60 58 50 48 56 62 69 75 75 73 63 53 50 47 44 42 44 43 41 34
38 38 20 21 18 12 36 96 98 98 97 97 96 93 73 75 68 69 66 59 58 62 64 66 74 95 95 95 95 88 85 72 65 60 57 51 43 41 43 46 47 51 53 53 51 47 43 44 44 41 40 36 15 9
63 34 19 26 16 18 55 97 97 98 98 96 94 84 78 73 67 68 64 61 60 64 67 76 94 92 95 94 93 85 78 71 74 73 75 66 51 31 34 47 56 56 54 52 49 44 33 26 15 9 7 8 10 12
57 44 31 26 30 61 89 97 98 97 95 94 90 82 77 77 73 71 68 69 70 70 77 87 92 96 91 88 85 81 83 86 86 58 27 11 6 6 6 7 7 8 7 5 4 4 5 7 9 10 11 12 15 16
82 88 47 49 56 72 98 96 96 96 94 92 84 86 89 84 84 87 87 81 76 80 88 94 95 93 93 91 93 91 86 60 23 9 6 5 5 4 4 4 4 4 4 5 6 7 9 10 12 14 17 19 21 20
92 97 86 65 67 96 96 94 96 94 96 92 90 88 93 94 93 95 96 95 95 96 96 95 92 63 55 84 70 44 15 7 6 6 6 6 6 6 5 4 4 5 6 8 9 11 12 14 17 28 34 33 29 22
98 98 98 99 100 97 95 95 94 94 92 96 96 99 98 98 97 96 96 96 95 94 90 86 92 95 77 40 14 7 7 8 7 7 7 7 7 7 6 6 7 9 12 13 14 15 19 30 37 43 46 44 44 40
96 97 97 97 97 95 96 97 96 96 95 95 98 96 96 96 96 97 96 95 91 92 90 69 42 30 15 10 8 10 10 9 10 10 9 8 7 6 6 9 12 14 14 16 20 26 31 36 41 42 49 54 64 62
96 96 96 96 96 96 97 97 96 96 96 97 96 96 96 96 96 95 95 88 64 47 38 25 12 11 12 12 14 12 10 11 12 13 13 10 8 7 9 11 13 12 13 17 24 31 35 36 41 48 60 68 68 61
95 95 94 94 95 95 96 95 96 95 96 96 96 96 96 95 95 93 72 52 41 26 20 22 21 18 15 13 13 14 14 14 15 17 17 14 12 9 10 9 9 9 12 21 31 37 38 39 49 54 72 72 62 67
90 96 96 96 96 96 96 97 96 94 96 96 95 95 94 93 76 53 38 20 19 23 23 22 20 20 20 21 19 16 21 23 24 25 21 16 12 11 9 10 12 12 23 33 37 39 41 49 58 65 66 73 73 73
72 94 91 95 97 92 94 95 96 95 94 93 92 83 68 54 41 33 25 22 23 27 26 26 28 27 24 24 22 20 22 35 34 26 14 10 8 12 17 15 18 20 28 42 47 52 58 60 72 75 69 68 75 87
59 59 62 70 68 64 74 73 80 81 80 66 56 49 47 45 44 37 28 29 32 34 30 30 33 30 31 28 25 27 27 21 14 10 8 10 16 23 25 27 30 29 34 41 57 77 81 81 83 83 77 80 92 92
71 69 60 58 56 55 54 52 51 50 48 46 48 47 48 45 38 34 38 43 45 43 42 42 37 35 29 23 24 23 14 10 9 15 21 21 22 26 32 34 36 48 60 68 82 95 98 100 91 87 84 83 85 96
81 74 70 68 63 61 65 60 56 56 57 53 52 57 50 40 44 50 47 41 37 34 31 30 26 31 27 27 22 12 11 15 22 22 22 22 20 26 50 50 60 64 72 75 81 90 98 100 96 94 95 97 97 97
87 83 80 68 68 72 68 64 68 64 63 61 59 53 45 42 42 39 36 34 32 31 33 36 30 23 19 13 12 11 19 26 31 39 40 39 47 52 59 68 69 70 76 86 84 91 97 100 99 90 95 100 100 100
80 84 84 89 79 68 56 59 67 68 59 57 55 48 42 36 31 27 23 24 25 24 21 16 13 11 12 16 20 27 27 35 47 58 73 77 76 74 70 68 70 75 83 94 99 98 97 98 93 88 91 92 90 98
74 60 54 50 46 45 47 60 67 64 61 53 48 42 34 36 32 20 23 23 18 19 20 31 37 35 32 30 25 28 36 45 66 81 86 88 85 77 75 76 79 85 93 97 97 97 98 94 84 91 96 78 73 91
81 92 91 87 83 78 72 63 53 46 44 45 48 50 53 50 32 15 18 29 38 32 28 26 25 26 28 32 38 48 58 70 78 84 91 91 84 78 78 82 94 93 94 94 94 93 90 90 95 100 92 65 67 74

GFSWCAN_700_rhum_135.txt.gz
RH
99 100 100 100 100 88 48 18 24 28 30 30 20 14 15 14 11 10 10 11 20 30 40 47 46 48 51 48 46 43 39 30 25 24 28 26 23 24 17 21 24 20 18 21 24 30 27 22 25 18 15 17 21 26
97 99 99 100 99 99 98 77 20 20 28 31 29 17 14 16 15 12 10 9 10 16 27 36 46 52 54 55 47 42 41 38 27 30 30 25 22 22 22 24 28 26 19 25 21 23 22 29 24 22 21 19 23 25
89 98 99 100 99 98 99 99 84 21 19 25 29 24 17 17 17 16 13 10 9 9 13 28 47 50 50 49 52 50 47 45 42 30 30 34 35 34 34 32 28 29 27 28 28 26 25 23 24 26 26 25 24 24
98 92 98 99 99 99 96 92 93 96 59 28 22 28 22 19 19 18 16 13 11 10 10 15 25 40 48 50 48 45 46 48 46 44 39 36 42 42 40 37 36 36 34 34 32 29 28 28 28 30 33 34 33 33
100 92 99 98 98 100 97 98 97 92 91 66 28 22 26 22 22 21 20 17 14 14 13 16 26 32 39 44 46 47 47 45 45 47 46 45 44 45 43 43 38 37 36 37 38 36 35 31 31 34 37 40 40 43
45 99 99 100 98 99 100 97 96 97 96 91 95 42 26 26 23 24 24 20 18 15 14 12 15 20 30 38 41 42 43 43 45 46 44 44 41 44 43 38 30 33 35 38 36 36 38 39 39 39 41 44 48 51
26 36 96 99 98 98 99 98 98 96 94 96 98 93 34 30 28 28 32 30 28 26 29 32 26 20 23 27 37 40 42 44 43 42 41 40 42 49 41 31 33 35 37 43 44 41 38 39 41 44 47 50 55 56
27 25 29 80 98 98 99 99 98 98 99 98 96 97 97 86 52 39 33 36 38 42 49 52 37 28 31 32 36 36 38 39 40 44 40 41 45 44 38 32 34 35 36 40 45 48 50 50 52 54 56 59 60 55
15 22 23 26 54 98 97 98 98 99 99 99 98 98 99 92 92 67 48 51 54 62 78 70 45 42 30 28 35 39 40 40 42 41 40 42 42 33 30 35 38 41 42 41 41 42 45 50 55 61 68 68 60 52
6 11 18 22 25 41 92 98 98 98 98 98 98 97 100 84 93 96 95 88 70 58 72 63 60 55 40 38 36 37 43 44 46 46 43 47 35 30 30 34 38 40 44 47 50 50 52 56 65 72 72 67 59 53
6 7 10 16 20 22 27 75 98 98 98 98 98 98 99 91 98 97 96 95 85 75 66 56 44 33 37 45 47 44 49 48 49 52 57 56 46 35 33 37 40 41 43 49 53 57 62 67 69 68 62 58 58 60
6 6 7 12 19 22 22 21 55 96 98 98 100 100 98 98 97 95 96 92 80 70 64 59 56 51 52 57 60 58 52 50 54 74 71 59 45 41 38 38 40 42 46 51 60 70 78 77 71 68 66 66 66 66
6 6 6 12 20 27 22 22 26 78 98 98 98 98 98 96 97 95 87 84 64 56 51 50 52 50 51 58 69 67 63 68 74 75 67 57 48 44 43 44 45 47 53 64 76 83 83 78 74 70 68 67 57 41
10 8 7 10 29 38 42 32 25 67 99 98 97 97 96 92 74 63 48 44 51 52 50 51 53 54 53 60 72 74 80 83 73 76 59 50 48 47 49 50 52 57 67 76 80 78 76 75 71 62 46 40 38 41
20 25 21 9 18 44 48 42 35 56 98 98 97 96 87 72 58 55 49 50 54 59 57 50 57 60 61 68 72 84 92 89 85 63 57 57 56 54 49 54 63 69 72 75 73 67 59 52 45 40 37 24 15 10
72 46 20 27 30 30 38 42 52 65 99 98 97 94 73 72 65 62 62 60 63 68 66 57 63 68 72 73 87 84 96 83 62 58 56 55 51 42 41 43 43 40 37 36 35 29 21 13 9 7 6 6 5 6
70 38 35 42 45 48 55 58 64 70 100 98 96 87 81 69 60 56 62 67 62 60 61 64 65 65 80 88 92 83 67 62 62 60 57 54 58 67 60 34 19 13 8 6 5 5 4 5 5 5 5 6 8 10
44 37 37 38 53 73 90 100 100 89 100 97 93 83 83 82 73 64 70 77 70 61 60 65 59 63 69 70 67 59 61 66 73 74 82 78 48 25 12 6 4 4 4 4 4 4 4 6 7 7 8 12 16 26
59 52 48 54 74 92 100 100 100 100 93 85 82 85 91 89 79 74 79 83 79 77 83 90 88 80 76 69 65 72 77 78 80 82 67 43 19 7 6 6 6 6 5 4 4 4 6 8 9 11 17 30 32 29
78 62 57 60 80 100 98 98 99 91 96 86 91 97 95 94 88 86 87 95 94 96 97 94 85 79 79 78 77 83 87 89 84 47 13 7 6 7 7 7 7 7 7 6 6 6 8 10 14 20 27 29 32 30
82 97 98 97 99 99 97 95 98 98 92 95 98 100 98 97 98 95 94 98 98 95 92 82 85 94 93 92 89 78 47 23 9 8 7 8 8 9 9 9 9 9 8 7 7 7 7 12 17 23 28 30 31 31
95 96 98 98 96 96 95 93 95 94 97 93 97 97 98 97 97 97 97 98 94 94 95 95 96 94 96 93 77 38 11 7 8 10 10 9 10 12 13 14 14 12 10 9 8 7 8 10 17 26 29 28 32 36
96 94 96 97 96 93 98 98 100 98 98 99 97 97 98 96 97 97 97 94 95 94 97 96 96 94 77 32 12 10 10 12 12 10 10 12 13 14 17 19 19 16 13 9 8 9 11 17 25 28 28 33 43 50
96 96 95 94 95 96 97 97 97 95 96 96 98 94 96 97 96 96 95 93 93 95 96 95 85 46 34 23 16 13 13 13 14 15 16 17 18 20 24 24 22 15 9 10 12 16 24 24 25 26 34 45 59 67
95 95 95 96 96 96 97 96 98 95 98 97 96 97 96 96 97 96 95 95 96 94 84 53 22 18 18 13 13 16 19 20 18 16 20 23 28 29 28 24 11 10 15 16 22 24 24 26 28 35 46 62 72 76
96 96 96 96 96 95 95 95 95 95 95 95 95 95 95 95 94 90 94 86 61 32 25 23 20 18 15 16 16 20 24 26 26 22 23 35 29 25 15 8 11 15 20 21 22 24 28 37 46 54 64 71 80 89
94 96 96 95 95 94 95 95 95 96 96 97 96 94 89 67 43 39 35 33 29 24 23 22 19 18 18 18 19 24 25 24 24 28 24 20 22 12 10 24 26 24 25 28 37 54 58 63 65 68 70 74 84 91
74 90 86 79 76 70 77 82 86 81 73 74 65 48 40 37 36 35 32 33 32 30 29 28 27 25 24 24 23 23 23 30 31 27 23 19 10 11 24 30 35 47 57 62 69 70 71 72 73 81 82 93 91 97
72 71 68 65 57 56 52 48 46 47 46 44 42 43 41 45 46 47 45 42 40 36 34 33 31 29 26 25 25 26 26 28 29 23 14 8 10 17 28 34 47 61 75 74 67 67 70 73 82 93 95 99 98 100
70 61 68 70 68 67 64 53 54 49 48 47 46 47 48 48 44 39 36 37 37 35 32 26 25 26 29 32 30 27 19 14 10 10 10 13 20 22 25 42 63 79 79 69 62 62 68 83 97 100 99 98 99 98
82 86 80 90 81 70 66 60 56 55 54 50 47 44 44 38 36 36 35 34 32 30 26 25 25 22 19 16 14 12 11 15 18 23 26 26 30 38 53 68 74 73 65 60 61 72 87 93 100 99 96 96 93 93
63 62 55 56 64 65 60 49 49 49 47 44 44 40 33 21 15 17 26 31 24 22 22 19 17 18 21 20 23 25 26 29 32 35 46 57 64 78 85 88 78 66 58 53 68 83 70 76 82 84 87 91 90 92
85 89 87 83 73 65 57 49 46 44 41 34 30 30 30 30 24 23 21 20 21 21 22 23 24 26 28 30 36 43 47 55 65 75 81 85 86 82 72 63 58 51 50 63 77 62 59 68 79 93 100 95 89 74

GFSWCAN_700_rhum_138.txt.gz
RH
98 99 99 99 99 98 94 48 18 24 25 22 25 29 21 14 13 11 9 10 12 19 28 38 45 44 49 50 50 46 42 32 28 25 29 27 26 27 18 21 26 19 16 18 24 24 17 16 20 17 14 13 14 15
93 97 98 99 100 99 100 97 56 20 21 26 27 30 31 21 15 14 12 10 10 13 19 21 28 42 48 51 53 46 42 39 28 29 31 27 23 23 24 24 25 24 18 21 17 18 18 24 24 23 22 22 20 22
95 95 97 98 99 99 99 100 98 85 39 21 22 26 31 30 20 16 16 13 11 10 11 14 33 45 46 48 48 49 49 47 44 34 32 34 35 35 34 32 29 30 30 29 28 27 27 29 28 25 24 27 26 25
52 92 92 96 98 99 99 99 99 98 99 83 41 20 24 27 28 20 17 17 15 12 12 13 13 20 33 46 48 48 48 46 47 46 43 38 35 39 40 40 40 37 35 34 33 34 35 35 31 29 29 30 33 34
48 81 88 97 96 98 99 99 98 98 98 98 94 58 31 24 26 26 20 18 18 17 16 32 42 39 38 34 37 44 46 48 47 45 46 46 44 43 42 42 34 34 36 39 40 39 40 40 39 36 32 35 37 40
34 56 99 94 98 95 98 99 98 98 100 99 96 91 98 67 30 27 25 21 19 20 18 15 15 13 13 16 26 37 41 44 45 44 44 43 39 44 43 35 28 30 32 34 35 37 39 39 40 42 42 41 43 45
32 32 51 93 94 96 97 98 99 98 98 98 97 96 96 92 91 62 34 29 28 26 29 33 23 14 12 13 18 31 40 41 46 47 43 41 37 41 41 29 27 27 30 34 36 36 38 41 42 43 45 46 49 52
20 28 32 36 73 94 87 96 98 100 98 99 99 97 99 99 97 67 55 32 32 33 38 47 34 24 28 34 37 38 38 38 39 41 38 38 40 37 34 27 26 27 33 35 36 38 40 44 46 48 51 55 60 64
7 15 28 30 31 67 100 99 98 98 99 98 99 98 98 99 91 96 72 51 50 63 68 61 39 32 28 25 27 32 39 39 41 41 42 44 46 41 36 33 29 30 35 40 44 44 43 42 44 48 54 61 68 69
7 7 12 25 28 32 53 99 98 98 98 98 98 98 98 99 88 96 97 98 96 80 79 69 44 43 36 32 33 39 43 44 45 42 40 47 37 35 36 34 36 34 37 44 48 50 51 51 53 60 68 74 75 70
6 7 6 9 19 28 33 50 97 97 98 97 98 98 98 96 100 100 96 97 93 94 83 67 64 55 52 46 46 46 51 49 48 48 51 49 44 37 41 43 40 38 41 42 44 50 58 61 64 70 75 74 70 65
6 5 6 6 8 16 30 34 40 91 97 97 98 98 98 98 98 96 95 98 87 76 59 50 54 60 66 67 67 66 58 52 48 60 63 54 47 47 43 41 41 42 41 42 46 54 62 70 75 75 73 70 69 70
13 8 6 6 7 13 21 38 34 33 70 96 98 98 98 96 97 93 86 92 78 52 44 44 49 56 66 69 81 74 66 60 61 68 57 51 53 54 52 46 43 44 46 50 57 66 75 80 80 79 77 76 74 64
16 14 10 8 7 10 25 42 44 38 38 84 97 97 96 95 81 60 51 49 50 48 48 49 51 52 58 65 70 60 67 69 76 70 54 49 51 52 50 50 48 49 50 54 65 73 75 76 76 74 60 46 40 37
17 19 58 72 37 12 30 59 69 55 54 68 97 96 92 75 62 58 57 59 56 55 58 54 51 52 53 62 60 64 71 73 74 53 47 48 50 56 56 55 52 53 57 59 58 58 52 42 38 36 32 20 11 8
21 78 100 86 57 40 34 69 78 70 66 100 94 96 77 67 56 61 61 56 53 60 68 64 59 61 64 60 62 59 70 60 46 44 53 54 52 50 48 45 41 40 40 41 41 40 32 17 10 8 7 5 4 4
40 90 98 93 91 85 79 67 71 77 84 96 53 46 90 90 80 68 69 75 66 63 70 68 62 60 58 63 63 59 47 38 44 51 58 61 65 57 49 46 53 63 52 29 16 9 6 4 4 3 3 4 4 6
72 98 97 95 86 82 78 76 88 100 95 50 36 21 37 79 88 91 92 88 85 79 78 71 65 62 56 53 48 44 47 46 57 60 63 66 63 63 72 70 45 23 13 8 6 5 5 5 6 6 5 6 7 12
96 99 100 92 85 94 98 98 81 97 59 39 24 23 22 30 64 97 98 98 97 97 96 92 85 69 60 55 54 57 57 59 63 71 72 72 75 70 51 25 10 7 6 7 7 7 7 7 7 7 6 7 11 17
98 98 99 100 100 100 98 99 92 76 49 39 36 28 24 23 28 78 99 96 97 98 98 95 84 74 61 61 65 69 70 71 76 75 77 80 75 52 20 7 7 7 8 9 9 9 10 10 9 7 7 7 9 15
100 99 100 100 97 98 98 97 96 68 59 73 64 68 73 43 31 35 70 97 99 96 93 84 75 74 71 74 80 86 80 84 83 85 84 68 30 9 8 8 9 10 11 12 13 15 15 12 9 8 8 9 12 22
98 99 100 100 99 98 98 96 99 96 90 90 99 94 86 73 71 73 72 82 87 79 94 81 81 82 82 86 95 97 97 96 83 45 22 9 8 9 10 10 11 12 14 16 21 21 16 11 8 9 11 16 24 23
97 97 98 97 96 97 97 99 98 100 99 100 100 100 96 88 77 74 99 82 90 93 90 83 83 91 95 96 96 96 92 60 29 11 8 10 10 10 11 14 15 16 18 23 23 18 10 10 14 18 22 23 22 21
97 97 97 96 95 96 97 97 96 97 96 96 96 95 95 94 95 100 98 96 65 62 73 90 98 97 97 96 95 91 42 25 10 11 13 13 13 13 15 17 19 23 28 27 17 9 10 15 20 22 22 23 27 37
97 96 97 96 95 95 95 96 98 95 86 91 91 99 100 97 98 96 93 92 100 95 98 99 97 96 96 95 94 74 42 18 12 14 16 17 17 18 18 20 30 33 23 15 11 12 15 17 20 27 34 40 53 59
96 96 97 97 97 96 95 96 95 94 95 96 98 96 94 100 99 97 96 84 90 94 96 95 95 96 88 61 30 18 16 15 16 17 20 25 23 20 19 23 29 22 15 12 12 15 18 26 37 41 44 53 58 65
97 97 98 96 97 94 96 97 89 94 96 96 96 97 95 96 95 94 95 98 96 93 82 62 47 49 41 28 21 18 18 21 25 28 26 23 22 20 22 24 20 14 13 15 18 22 32 44 55 60 60 57 60 69
95 96 95 97 97 97 97 96 96 96 96 96 96 95 96 92 95 93 77 54 46 45 44 40 32 25 22 23 24 27 28 27 26 24 22 22 22 25 25 17 13 14 21 25 26 32 52 65 66 63 56 58 69 86
88 90 85 89 90 93 91 90 94 95 94 94 90 88 88 91 77 60 49 42 38 33 29 25 27 28 28 27 28 28 28 27 26 27 27 26 23 15 14 14 22 28 29 29 41 59 64 68 67 55 57 72 76 88
70 71 63 60 48 46 43 52 55 54 55 54 52 51 52 51 52 49 46 42 39 36 34 30 28 25 22 22 25 29 29 27 26 22 18 14 14 19 25 30 29 31 38 41 47 48 55 56 51 57 70 69 80 94
82 78 70 65 60 60 56 50 46 42 43 45 46 50 49 45 40 38 35 33 31 28 26 24 25 25 26 25 24 22 18 17 18 22 27 31 33 32 31 33 38 47 49 50 50 47 44 47 53 69 62 61 69 78
60 57 61 77 77 70 65 60 57 53 50 48 46 43 42 38 36 32 30 28 30 32 32 30 26 19 16 16 19 24 28 32 32 32 32 34 35 41 47 56 62 59 54 49 43 41 44 51 67 67 63 80 93 92
78 77 79 68 66 66 63 64 62 55 49 46 43 37 28 26 24 24 25 24 23 20 17 17 18 20 23 28 32 35 37 44 52 63 70 72 73 70 66 60 54 48 42 40 40 44 55 64 63 69 86 95 94 96

GFSWCAN_700_rhum_141.txt.gz
RH
97 98 99 98 99 100 96 56 25 23 29 24 10 16 25 25 17 13 11 10 10 9 15 23 44 46 47 53 52 48 45 35 31 27 28 28 24 27 20 21 26 22 18 18 25 25 15 13 16 18 14 14 12 13
96 98 98 99 99 99 100 88 67 79 28 26 29 22 24 31 28 19 14 12 10 10 11 14 25 28 42 51 55 55 46 41 30 28 32 31 30 25 27 25 24 24 16 19 15 14 17 21 24 23 22 23 22 19
74 97 98 98 98 98 99 99 94 88 92 32 24 30 29 30 33 29 19 14 13 12 10 9 13 24 37 48 53 53 51 50 47 42 33 34 35 36 35 33 30 30 31 29 28 28 28 30 30 30 29 27 26 26
79 88 97 97 98 98 99 99 99 98 99 85 39 26 26 26 30 31 28 20 16 14 13 11 12 12 17 28 43 50 53 53 51 49 47 45 40 37 38 39 38 39 39 38 36 35 36 36 36 36 33 29 30 30
46 69 94 95 96 98 98 99 99 98 98 99 94 83 42 28 24 25 27 26 20 17 14 18 31 36 42 45 49 44 44 45 48 50 49 47 45 45 42 40 32 32 31 32 32 34 36 36 38 39 38 34 32 32
38 43 64 91 96 96 98 98 99 99 98 98 98 98 98 96 50 32 30 27 24 21 19 16 14 13 12 11 12 18 33 46 47 48 46 44 41 46 43 34 26 26 28 29 32 35 36 36 37 40 40 41 40 39
31 36 40 62 96 96 96 97 98 98 99 98 98 98 99 98 98 86 67 57 44 27 24 22 18 15 13 11 12 20 30 40 47 48 45 42 42 50 44 31 28 28 27 26 29 32 35 38 40 43 43 43 44 45
11 24 33 36 59 96 96 98 97 98 98 99 98 98 98 98 98 96 90 77 59 48 38 34 27 23 21 22 28 29 31 37 42 46 40 39 40 40 40 35 37 37 32 29 30 34 36 37 38 42 49 52 54 55
8 8 18 30 33 50 93 97 95 96 98 99 99 98 98 98 98 97 98 78 63 77 61 50 32 28 29 29 34 32 34 30 33 34 37 42 44 42 37 35 33 35 37 34 33 36 40 43 44 44 47 54 60 64
9 8 8 13 28 35 37 84 97 83 90 98 98 98 98 98 91 97 97 98 93 78 76 67 62 50 47 32 30 35 40 42 44 40 37 38 33 34 37 39 36 35 37 37 40 40 43 47 48 49 51 56 61 68
8 8 8 8 10 24 34 32 82 95 99 98 97 98 98 98 96 98 97 96 94 97 87 66 65 74 66 55 44 47 50 46 48 45 47 45 42 37 37 38 38 42 45 45 42 41 45 48 52 55 58 64 70 74
11 8 7 7 8 9 20 32 35 56 96 98 97 98 98 97 97 96 97 92 87 82 67 44 48 64 75 71 64 63 60 55 53 58 57 48 41 40 39 39 44 44 43 44 44 44 46 49 55 61 68 72 73 72
20 16 10 7 7 8 9 18 31 41 54 96 96 97 97 96 97 94 89 96 81 64 47 41 48 58 75 85 87 75 67 62 64 63 51 44 42 40 44 44 47 50 46 45 45 45 46 52 59 69 76 77 76 76
30 23 18 13 9 9 9 12 24 44 57 78 95 96 96 96 88 65 62 64 62 56 54 49 48 49 61 74 84 70 68 63 64 62 41 37 38 38 45 51 50 50 50 48 46 47 49 54 64 70 73 70 56 43
30 24 20 16 16 52 31 15 37 64 67 98 93 94 95 93 69 62 68 68 66 67 63 57 53 52 59 72 70 62 62 63 55 34 33 34 37 44 47 46 48 50 47 46 46 47 48 51 52 44 38 31 16 10
30 24 19 19 79 99 100 89 60 87 86 96 87 77 76 83 58 68 71 70 67 70 72 66 61 65 64 58 55 52 60 48 36 35 38 39 42 49 53 54 51 48 46 44 42 44 47 46 39 22 10 6 5 4
34 22 20 44 96 97 97 100 100 98 100 99 71 62 54 70 74 84 94 90 82 76 85 79 72 60 58 57 54 49 42 35 35 41 41 44 45 50 59 62 56 51 45 46 58 58 28 14 8 6 5 6 6 6
28 26 23 86 93 96 100 98 100 97 86 35 27 33 46 34 55 95 98 100 99 97 92 85 77 69 61 54 48 46 46 44 45 48 47 49 51 54 62 63 56 57 67 64 35 16 8 6 6 7 8 8 8 6
34 47 57 94 98 96 98 96 95 90 56 29 14 18 25 20 22 26 48 85 96 97 97 96 97 90 72 64 57 58 58 55 53 53 56 58 60 64 67 67 72 68 46 22 9 7 8 9 10 10 11 10 9 7
55 70 84 98 97 97 98 95 81 73 49 32 25 22 17 11 14 23 28 31 32 62 97 96 89 71 56 60 67 67 68 65 61 60 62 65 69 70 72 75 67 37 17 8 8 10 13 14 14 16 14 11 9 8
98 97 98 98 98 84 88 86 76 69 60 54 40 42 44 31 32 28 24 32 40 54 32 60 68 80 85 84 77 74 74 74 74 75 75 79 79 77 79 70 38 14 8 9 11 14 17 18 19 16 12 10 8 9
88 92 95 98 97 97 97 94 94 92 88 77 87 73 62 61 45 38 43 71 66 37 24 19 25 52 64 72 76 74 94 96 93 92 92 93 82 79 67 26 9 9 10 11 16 18 18 20 19 14 11 10 12 16
94 96 98 98 98 96 98 94 97 97 98 100 100 98 91 77 68 71 100 75 46 34 33 31 22 23 59 53 54 74 88 98 99 92 96 95 78 18 10 9 10 11 13 16 21 22 25 22 17 12 10 11 15 18
97 98 98 96 96 97 94 100 94 99 100 99 100 96 93 90 84 90 74 54 46 53 49 38 41 67 45 35 32 73 100 99 100 96 94 42 10 9 10 12 13 14 16 21 25 25 22 17 12 10 12 17 25 31
98 97 97 97 98 100 98 96 99 100 97 97 99 96 95 92 100 100 78 59 60 55 54 67 78 76 84 100 100 94 99 97 96 92 42 18 10 13 14 16 16 19 22 28 25 20 18 13 11 13 17 21 29 36
96 96 96 97 97 96 100 88 92 97 98 90 89 94 99 100 98 93 78 65 58 55 54 47 79 96 94 99 100 97 95 96 71 47 31 13 12 14 18 19 21 23 29 26 21 20 15 13 16 20 20 23 40 60
96 96 96 97 98 97 99 100 94 92 96 97 97 98 100 98 94 85 75 62 66 73 83 85 96 98 97 97 96 94 91 69 44 21 14 16 19 22 24 26 27 28 26 25 20 14 14 17 22 23 25 31 51 68
97 97 97 98 97 97 97 97 96 97 96 96 96 96 96 94 84 76 69 61 79 96 97 97 97 96 82 68 54 43 30 25 24 23 24 27 29 32 32 29 27 24 19 15 14 17 24 26 24 27 37 50 57 57
96 96 96 97 97 97 97 95 95 95 96 98 98 95 88 92 97 97 97 93 91 85 78 76 77 71 66 59 48 36 28 27 29 30 30 32 31 29 26 21 16 14 15 19 28 30 29 30 34 44 53 56 57 54
88 91 88 83 70 79 90 94 96 95 95 96 95 95 96 95 92 75 64 62 61 60 57 52 48 44 39 38 37 36 35 34 33 30 26 22 18 17 17 18 21 26 28 28 26 28 40 52 55 55 49 48 49 58
80 80 79 76 75 74 77 78 77 78 74 82 93 97 96 96 96 94 89 84 69 56 49 46 43 39 37 35 32 28 25 23 21 20 19 19 21 25 27 27 30 38 43 41 47 54 53 49 46 45 45 46 60 66
46 45 62 73 80 78 74 70 68 66 66 66 73 70 65 60 52 48 43 41 39 37 36 34 32 30 27 23 16 12 11 13 15 21 27 28 28 35 48 61 66 64 61 56 51 44 42 41 41 43 50 61 68 75
58 54 59 62 58 62 66 70 66 62 57 54 51 48 43 35 27 24 22 21 21 21 22 22 19 15 14 14 18 24 29 34 39 47 57 62 65 66 65 60 57 51 46 45 45 43 41 43 48 60 78 88 92 92